Observation data for Palo Duro Reservoir 1NW on 11/09/2019      Previous  Date       Current Mesonet Observations  Soil Data  Daily Summary Page  Observations in Plain Language
KPD4 090600Z 23007KT 04/02 A3022 RMK A01 T00350016  RH  088%=      5-min Rain = 0
KPD4 090601Z 24008KT 03/02 A3022 RMK A01 T00330015  RH  088%=      5-min Rain = 0
KPD4 090602Z 24009KT 03/02 A3022 RMK A01 T00330016  RH  089%=      5-min Rain = 0
KPD4 090603Z 24008KT 03/02 A3022 RMK A01 T00330016  RH  089%=      5-min Rain = 0
KPD4 090604Z 24008KT 03/02 A3022 RMK A01 T00340017  RH  088%=      5-min Rain = 0
KPD4 090605Z 24008KT 04/02 A3022 RMK A01 T00350016  RH  088%=      5-min Rain = 0
KPD4 090606Z 24008KT 04/02 A3022 RMK A01 T00350016  RH  087%=      5-min Rain = 0
KPD4 090607Z 24008KT 03/02 A3022 RMK A01 T00340015  RH  087%=      5-min Rain = 0
KPD4 090608Z 23008KT 03/01 A3022 RMK A01 T00340014  RH  087%=      5-min Rain = 0
KPD4 090609Z 24008KT 03/01 A3022 RMK A01 T00330013  RH  087%=      5-min Rain = 0
KPD4 090610Z 24008KT 03/01 A3022 RMK A01 T00330013  RH  087%=      5-min Rain = 0
KPD4 090611Z 24008KT 03/01 A3022 RMK A01 T00320013  RH  087%=      5-min Rain = 0
KPD4 090612Z 24009KT 03/01 A3022 RMK A01 T00320013  RH  087%=      5-min Rain = 0
KPD4 090613Z 24009KT 03/01 A3022 RMK A01 T00320013  RH  087%=      5-min Rain = 0
KPD4 090614Z 25009KT 03/01 A3022 RMK A01 T00320013  RH  087%=      5-min Rain = 0
KPD4 090615Z 25009KT 03/01 A3022 RMK A01 T00320012  RH  087%=      5-min Rain = 0
KPD4 090616Z 24009KT 03/01 A3022 RMK A01 T00320011  RH  086%=      5-min Rain = 0
KPD4 090617Z 24009KT 03/01 A3022 RMK A01 T00310011  RH  086%=      5-min Rain = 0
KPD4 090618Z 24008KT 03/01 A3022 RMK A01 T00310010  RH  086%=      5-min Rain = 0
KPD4 090619Z 23007KT 03/01 A3022 RMK A01 T00300009  RH  086%=      5-min Rain = 0
KPD4 090620Z 23007KT 03/01 A3022 RMK A01 T00280008  RH  087%=      5-min Rain = 0
KPD4 090621Z 23007KT 03/01 A3022 RMK A01 T00280008  RH  087%=      5-min Rain = 0
KPD4 090622Z 24008KT 03/01 A3022 RMK A01 T00270008  RH  087%=      5-min Rain = 0
KPD4 090623Z 24008KT 03/01 A3022 RMK A01 T00270009  RH  087%=      5-min Rain = 0
KPD4 090624Z 24008KT 03/01 A3022 RMK A01 T00280009  RH  087%=      5-min Rain = 0
KPD4 090625Z 25009KT 03/01 A3022 RMK A01 T00280008  RH  087%=      5-min Rain = 0
KPD4 090626Z 24008KT 03/01 A3022 RMK A01 T00280008  RH  087%=      5-min Rain = 0
KPD4 090627Z 24008KT 03/01 A3022 RMK A01 T00270007  RH  087%=      5-min Rain = 0
KPD4 090628Z 24007KT 03/01 A3022 RMK A01 T00260006  RH  087%=      5-min Rain = 0
KPD4 090629Z 24007KT 03/01 A3022 RMK A01 T00250005  RH  087%=      5-min Rain = 0
KPD4 090630Z 24007KT 02/01 A3022 RMK A01 T00240005  RH  087%=      5-min Rain = 0
KPD4 090631Z 23007KT 02/01 A3022 RMK A01 T00240005  RH  087%=      5-min Rain = 0
KPD4 090632Z 24007KT 02/01 A3022 RMK A01 T00230005  RH  088%=      5-min Rain = 0
KPD4 090633Z 24007KT 02/01 A3022 RMK A01 T00230005  RH  088%=      5-min Rain = 0
KPD4 090634Z 25006KT 02/01 A3022 RMK A01 T00230005  RH  088%=      5-min Rain = 0
KPD4 090635Z 25006KT 02/01 A3022 RMK A01 T00230005  RH  088%=      5-min Rain = 0
KPD4 090636Z 25007KT 02/01 A3022 RMK A01 T00230005  RH  088%=      5-min Rain = 0
KPD4 090637Z 24006KT 02/00 A3022 RMK A01 T00230004  RH  088%=      5-min Rain = 0
KPD4 090638Z 24007KT 02/00 A3022 RMK A01 T00230004  RH  087%=      5-min Rain = 0
KPD4 090639Z 24006KT 02/00 A3022 RMK A01 T00220003  RH  087%=      5-min Rain = 0
KPD4 090640Z 24006KT 02/00 A3022 RMK A01 T00210003  RH  088%=      5-min Rain = 0
KPD4 090641Z 24007KT 02/00 A3022 RMK A01 T00210003  RH  088%=      5-min Rain = 0
KPD4 090642Z 24007KT 02/00 A3022 RMK A01 T00210003  RH  088%=      5-min Rain = 0
KPD4 090643Z 24007KT 02/00 A3022 RMK A01 T00210003  RH  088%=      5-min Rain = 0
KPD4 090644Z 24007KT 02/00 A3022 RMK A01 T00210004  RH  088%=      5-min Rain = 0
KPD4 090645Z 24007KT 02/00 A3022 RMK A01 T00220004  RH  088%=      5-min Rain = 0
KPD4 090646Z 24007KT 02/01 A3022 RMK A01 T00230005  RH  088%=      5-min Rain = 0
KPD4 090647Z 23007KT 02/01 A3022 RMK A01 T00240005  RH  088%=      5-min Rain = 0
KPD4 090648Z 24007KT 02/01 A3022 RMK A01 T00230005  RH  087%=      5-min Rain = 0
KPD4 090649Z 23007KT 02/01 A3022 RMK A01 T00240005  RH  087%=      5-min Rain = 0
KPD4 090650Z 23007KT 02/01 A3022 RMK A01 T00240005  RH  087%=      5-min Rain = 0
KPD4 090651Z 23007KT 02/01 A3022 RMK A01 T00240005  RH  087%=      5-min Rain = 0
KPD4 090652Z 23007KT 02/01 A3022 RMK A01 T00240005  RH  087%=      5-min Rain = 0
KPD4 090653Z 23007KT 02/00 A3022 RMK A01 T00230004  RH  087%=      5-min Rain = 0
KPD4 090654Z 22007KT 02/00 A3022 RMK A01 T00230004  RH  087%=      5-min Rain = 0
KPD4 090655Z 23008KT 02/00 A3022 RMK A01 T00230004  RH  088%=      5-min Rain = 0
KPD4 090656Z 23008KT 02/01 A3022 RMK A01 T00230006  RH  088%=      5-min Rain = 0
KPD4 090657Z 23008KT 03/01 A3022 RMK A01 T00250007  RH  088%=      5-min Rain = 0
KPD4 090658Z 23008KT 03/01 A3022 RMK A01 T00250006  RH  088%=      5-min Rain = 0
KPD4 090659Z 23008KT 03/01 A3022 RMK A01 T00250006  RH  087%=      5-min Rain = 0
KPD4 090700Z 23008KT 03/01 A3022 RMK A01 T00250006  RH  087%=      5-min Rain = 0
KPD4 090701Z 24008KT 03/01 A3022 RMK A01 T00250006  RH  087%=      5-min Rain = 0
KPD4 090702Z 24008KT 03/01 A3022 RMK A01 T00250006  RH  087%=      5-min Rain = 0
KPD4 090703Z 23008KT 03/01 A3022 RMK A01 T00250006  RH  087%=      5-min Rain = 0
KPD4 090704Z 23007KT 03/01 A3022 RMK A01 T00250006  RH  087%=      5-min Rain = 0
KPD4 090705Z 23007KT 02/01 A3021 RMK A01 T00240005  RH  087%=      5-min Rain = 0
KPD4 090706Z 23007KT 02/00 A3021 RMK A01 T00230004  RH  087%=      5-min Rain = 0
KPD4 090707Z 23007KT 02/00 A3021 RMK A01 T00230004  RH  087%=      5-min Rain = 0
KPD4 090708Z 23007KT 02/00 A3021 RMK A01 T00220004  RH  088%=      5-min Rain = 0
KPD4 090709Z 23007KT 02/00 A3021 RMK A01 T00220004  RH  088%=      5-min Rain = 0
KPD4 090710Z 23007KT 02/00 A3021 RMK A01 T00220003  RH  088%=      5-min Rain = 0
KPD4 090711Z 23007KT 02/00 A3021 RMK A01 T00210003  RH  088%=      5-min Rain = 0
KPD4 090712Z 22007KT 02/00 A3021 RMK A01 T00210004  RH  088%=      5-min Rain = 0
KPD4 090713Z 22007KT 02/00 A3021 RMK A01 T00210004  RH  088%=      5-min Rain = 0
KPD4 090714Z 22008KT 02/01 A3021 RMK A01 T00210005  RH  089%=      5-min Rain = 0
KPD4 090715Z 23008KT 02/01 A3021 RMK A01 T00220005  RH  089%=      5-min Rain = 0
KPD4 090721Z 23008KT 02/00 A3021 RMK A01 T00230004  RH  088%=      5-min Rain = 0
KPD4 090722Z 23009KT 02/00 A3021 RMK A01 T00220004  RH  088%=      5-min Rain = 0
KPD4 090723Z 23009KT 02/01 A3021 RMK A01 T00220005  RH  088%=      5-min Rain = 0
KPD4 090724Z 23010KT 02/01 A3021 RMK A01 T00230006  RH  089%=      5-min Rain = 0
KPD4 090725Z 23010KT 03/01 A3021 RMK A01 T00250008  RH  089%=      5-min Rain = 0
KPD4 090726Z 23009KT 03/01 A3021 RMK A01 T00260009  RH  088%=      5-min Rain = 0
KPD4 090727Z 23009KT 03/01 A3021 RMK A01 T00270009  RH  088%=      5-min Rain = 0
KPD4 090728Z 23009KT 03/01 A3021 RMK A01 T00270008  RH  087%=      5-min Rain = 0
KPD4 090729Z 24009KT 03/01 A3021 RMK A01 T00270008  RH  087%=      5-min Rain = 0
KPD4 090730Z 24009KT 03/01 A3021 RMK A01 T00270008  RH  087%=      5-min Rain = 0
KPD4 090731Z 24009KT 03/01 A3021 RMK A01 T00280008  RH  087%=      5-min Rain = 0
KPD4 090732Z 24008KT 03/01 A3021 RMK A01 T00280008  RH  087%=      5-min Rain = 0
KPD4 090733Z 24008KT 03/01 A3021 RMK A01 T00280008  RH  087%=      5-min Rain = 0
KPD4 090734Z 24008KT 03/01 A3021 RMK A01 T00280008  RH  087%=      5-min Rain = 0
KPD4 090735Z 23008KT 03/01 A3021 RMK A01 T00270008  RH  087%=      5-min Rain = 0
KPD4 090736Z 23008KT 03/01 A3021 RMK A01 T00270008  RH  087%=      5-min Rain = 0
KPD4 090737Z 23008KT 03/01 A3021 RMK A01 T00270008  RH  087%=      5-min Rain = 0
KPD4 090738Z 23007KT 03/01 A3021 RMK A01 T00270008  RH  088%=      5-min Rain = 0
KPD4 090739Z 23008KT 03/01 A3021 RMK A01 T00270008  RH  088%=      5-min Rain = 0
KPD4 090740Z 23008KT 03/01 A302 RMK A01 T00260008  RH  088%=      5-min Rain = 0
KPD4 090741Z 23008KT 03/01 A302 RMK A01 T00260008  RH  088%=      5-min Rain = 0
KPD4 090742Z 23008KT 03/01 A302 RMK A01 T00260008  RH  088%=      5-min Rain = 0
KPD4 090743Z 23008KT 03/01 A302 RMK A01 T00250007  RH  088%=      5-min Rain = 0
KPD4 090744Z 24008KT 03/01 A302 RMK A01 T00250008  RH  088%=      5-min Rain = 0
KPD4 090745Z 24008KT 03/01 A302 RMK A01 T00250008  RH  088%=      5-min Rain = 0
KPD4 090746Z 24008KT 03/01 A302 RMK A01 T00250008  RH  088%=      5-min Rain = 0
KPD4 090747Z 24008KT 03/01 A302 RMK A01 T00250008  RH  088%=      5-min Rain = 0
KPD4 090748Z 24008KT 03/01 A302 RMK A01 T00250007  RH  088%=      5-min Rain = 0
KPD4 090749Z 24007KT 02/01 A302 RMK A01 T00240006  RH  088%=      5-min Rain = 0
KPD4 090750Z 24007KT 02/00 A302 RMK A01 T00230004  RH  088%=      5-min Rain = 0
KPD4 090751Z 24008KT 02/00 A302 RMK A01 T00220004  RH  088%=      5-min Rain = 0
KPD4 090752Z 24007KT 02/00 A302 RMK A01 T00220004  RH  088%=      5-min Rain = 0
KPD4 090753Z 24008KT 02/00 A302 RMK A01 T00210003  RH  088%=      5-min Rain = 0
KPD4 090754Z 24008KT 02/00 A302 RMK A01 T00200003  RH  088%=      5-min Rain = 0
KPD4 090755Z 24008KT 02/00 A302 RMK A01 T00190002  RH  089%=      5-min Rain = 0
KPD4 090756Z 23008KT 02/00 A302 RMK A01 T00190002  RH  089%=      5-min Rain = 0
KPD4 090757Z 23008KT 02/00 A302 RMK A01 T00180002  RH  089%=      5-min Rain = 0
KPD4 090758Z 23008KT 02/00 A302 RMK A01 T00180002  RH  089%=      5-min Rain = 0
KPD4 090759Z 23008KT 02/00 A302 RMK A01 T00180002  RH  089%=      5-min Rain = 0
KPD4 090800Z 23007KT 02/00 A302 RMK A01 T00170002  RH  090%=      5-min Rain = 0
KPD4 090801Z 22007KT 02/00 A302 RMK A01 T00180003  RH  090%=      5-min Rain = 0
KPD4 090802Z 23007KT 02/00 A302 RMK A01 T00180003  RH  090%=      5-min Rain = 0
KPD4 090803Z 23007KT 02/00 A302 RMK A01 T00190004  RH  090%=      5-min Rain = 0
KPD4 090804Z 23007KT 02/01 A302 RMK A01 T00200005  RH  090%=      5-min Rain = 0
KPD4 090805Z 23007KT 02/01 A302 RMK A01 T00200005  RH  090%=      5-min Rain = 0
KPD4 090806Z 22007KT 02/01 A302 RMK A01 T00200005  RH  089%=      5-min Rain = 0
KPD4 090807Z 22007KT 02/01 A302 RMK A01 T00210005  RH  089%=      5-min Rain = 0
KPD4 090808Z 23007KT 02/00 A302 RMK A01 T00210004  RH  089%=      5-min Rain = 0
KPD4 090809Z 23007KT 02/00 A302 RMK A01 T00210004  RH  089%=      5-min Rain = 0
KPD4 090810Z 23008KT 02/00 A302 RMK A01 T00210004  RH  089%=      5-min Rain = 0
KPD4 090811Z 23008KT 02/00 A302 RMK A01 T00200004  RH  089%=      5-min Rain = 0
KPD4 090812Z 23008KT 02/00 A302 RMK A01 T00200004  RH  089%=      5-min Rain = 0
KPD4 090813Z 23008KT 02/00 A302 RMK A01 T00200004  RH  089%=      5-min Rain = 0
KPD4 090814Z 23008KT 02/00 A302 RMK A01 T00200003  RH  089%=      5-min Rain = 0
KPD4 090815Z 23008KT 02/00 A302 RMK A01 T00200003  RH  089%=      5-min Rain = 0
KPD4 090816Z 23008KT 02/00 A302 RMK A01 T00200003  RH  089%=      5-min Rain = 0
KPD4 090817Z 23008KT 02/00 A302 RMK A01 T00200003  RH  089%=      5-min Rain = 0
KPD4 090818Z 23008KT 02/00 A302 RMK A01 T00200003  RH  089%=      5-min Rain = 0
KPD4 090819Z 23007KT 02/00 A302 RMK A01 T00200003  RH  089%=      5-min Rain = 0
KPD4 090820Z 23008KT 02/00 A302 RMK A01 T00190002  RH  089%=      5-min Rain = 0
KPD4 090821Z 23008KT 02/00 A302 RMK A01 T00180001  RH  089%=      5-min Rain = 0
KPD4 090822Z 23008KT 02/00 A302 RMK A01 T00180002  RH  089%=      5-min Rain = 0
KPD4 090823Z 23008KT 02/00 A302 RMK A01 T00180001  RH  089%=      5-min Rain = 0
KPD4 090824Z 23008KT 02/00 A302 RMK A01 T00180001  RH  089%=      5-min Rain = 0
KPD4 090825Z 23008KT 02/00 A3019 RMK A01 T00170001  RH  089%=      5-min Rain = 0
KPD4 090826Z 23008KT 02/00 A3019 RMK A01 T00170001  RH  089%=      5-min Rain = 0
KPD4 090827Z 22009KT 02/00 A3019 RMK A01 T00170001  RH  089%=      5-min Rain = 0
KPD4 090828Z 22009KT 02/00 A302 RMK A01 T00170002  RH  089%=      5-min Rain = 0
KPD4 090829Z 23009KT 02/00 A3019 RMK A01 T00180003  RH  090%=      5-min Rain = 0
KPD4 090830Z 23009KT 02/00 A3019 RMK A01 T00190003  RH  089%=      5-min Rain = 0
KPD4 090831Z 23009KT 02/00 A3019 RMK A01 T00190003  RH  089%=      5-min Rain = 0
KPD4 090832Z 23008KT 02/00 A3019 RMK A01 T00200004  RH  089%=      5-min Rain = 0
KPD4 090833Z 23008KT 02/00 A3019 RMK A01 T00200003  RH  089%=      5-min Rain = 0
KPD4 090834Z 23009KT 02/00 A3019 RMK A01 T00200003  RH  088%=      5-min Rain = 0
KPD4 090835Z 23009KT 02/00 A3019 RMK A01 T00200002  RH  088%=      5-min Rain = 0
KPD4 090836Z 22009KT 02/00 A3019 RMK A01 T00190002  RH  088%=      5-min Rain = 0
KPD4 090837Z 22009KT 02/00 A3019 RMK A01 T00180001  RH  089%=      5-min Rain = 0
KPD4 090838Z 23009KT 02/00 A3019 RMK A01 T00180002  RH  089%=      5-min Rain = 0
KPD4 090839Z 23009KT 02/00 A3019 RMK A01 T00190002  RH  089%=      5-min Rain = 0
KPD4 090840Z 23009KT 02/00 A3019 RMK A01 T00190003  RH  089%=      5-min Rain = 0
KPD4 090841Z 23009KT 02/00 A3019 RMK A01 T00200004  RH  089%=      5-min Rain = 0
KPD4 090842Z 22009KT 02/00 A3019 RMK A01 T00200003  RH  088%=      5-min Rain = 0
KPD4 090843Z 22009KT 02/00 A3019 RMK A01 T00200002  RH  088%=      5-min Rain = 0
KPD4 090844Z 23008KT 02/00 A3019 RMK A01 T00200002  RH  088%=      5-min Rain = 0
KPD4 090845Z 23008KT 02/00 A3019 RMK A01 T00200002  RH  088%=      5-min Rain = 0
KPD4 090846Z 23008KT 02/00 A3019 RMK A01 T00200002  RH  088%=      5-min Rain = 0
KPD4 090847Z 23008KT 02/00 A3019 RMK A01 T00200002  RH  088%=      5-min Rain = 0
KPD4 090848Z 22008KT 02/00 A3019 RMK A01 T00200002  RH  088%=      5-min Rain = 0
KPD4 090849Z 22008KT 02/00 A3019 RMK A01 T00200001  RH  087%=      5-min Rain = 0
KPD4 090850Z 23008KT 02/00 A3019 RMK A01 T00200001  RH  087%=      5-min Rain = 0
KPD4 090851Z 23008KT 02/00 A3019 RMK A01 T00200001  RH  088%=      5-min Rain = 0
KPD4 090852Z 23008KT 02/00 A3019 RMK A01 T00200001  RH  088%=      5-min Rain = 0
KPD4 090853Z 23008KT 02/00 A3019 RMK A01 T00200001  RH  087%=      5-min Rain = 0
KPD4 090854Z 23008KT 02/00 A3019 RMK A01 T00200001  RH  087%=      5-min Rain = 0
KPD4 090855Z 23007KT 02/00 A3019 RMK A01 T00200001  RH  087%=      5-min Rain = 0
KPD4 090856Z 22007KT 02/00 A3019 RMK A01 T00200001  RH  087%=      5-min Rain = 0
KPD4 090857Z 23007KT 02/00 A3019 RMK A01 T00200000  RH  087%=      5-min Rain = 0
KPD4 090858Z 22008KT 02/M00 A3019 RMK A01 T00191001  RH  087%=      5-min Rain = 0
KPD4 090859Z 22007KT 02/M00 A3019 RMK A01 T00181001  RH  087%=      5-min Rain = 0
KPD4 090900Z 23007KT 02/00 A3019 RMK A01 T001800-0  RH  087%=      5-min Rain = 0
KPD4 090901Z 23007KT 02/M00 A3019 RMK A01 T00181001  RH  087%=      5-min Rain = 0
KPD4 090902Z 23006KT 02/M00 A3019 RMK A01 T00181001  RH  088%=      5-min Rain = 0
KPD4 090903Z 22006KT 02/M00 A3019 RMK A01 T00171001  RH  088%=      5-min Rain = 0
KPD4 090904Z 22007KT 02/M00 A3019 RMK A01 T00171002  RH  088%=      5-min Rain = 0
KPD4 090905Z 22007KT 02/M00 A3019 RMK A01 T00161002  RH  088%=      5-min Rain = 0
KPD4 090906Z 22007KT 02/M00 A3019 RMK A01 T00161002  RH  088%=      5-min Rain = 0
KPD4 090907Z 22007KT 02/M00 A3019 RMK A01 T00151002  RH  088%=      5-min Rain = 0
KPD4 090908Z 23007KT 02/M00 A3019 RMK A01 T00151003  RH  088%=      5-min Rain = 0
KPD4 090909Z 23008KT 02/M00 A3019 RMK A01 T00151002  RH  088%=      5-min Rain = 0
KPD4 090910Z 23008KT 01/M00 A3019 RMK A01 T00141003  RH  089%=      5-min Rain = 0
KPD4 090911Z 23008KT 01/M00 A3019 RMK A01 T00141003  RH  089%=      5-min Rain = 0
KPD4 090912Z 23008KT 01/M00 A3019 RMK A01 T00141003  RH  089%=      5-min Rain = 0
KPD4 090913Z 23008KT 01/M00 A3019 RMK A01 T00131003  RH  089%=      5-min Rain = 0
KPD4 090914Z 22009KT 01/M00 A3019 RMK A01 T00141003  RH  089%=      5-min Rain = 0
KPD4 090915Z 23008KT 01/M00 A3019 RMK A01 T00141002  RH  089%=      5-min Rain = 0
KPD4 090916Z 23008KT 02/M00 A3019 RMK A01 T00151002  RH  088%=      5-min Rain = 0
KPD4 090917Z 23008KT 02/M00 A3019 RMK A01 T00151003  RH  088%=      5-min Rain = 0
KPD4 090918Z 22008KT 02/M00 A3019 RMK A01 T00151003  RH  088%=      5-min Rain = 0
KPD4 090919Z 22007KT 02/M00 A3019 RMK A01 T00151003  RH  088%=      5-min Rain = 0
KPD4 090920Z 23007KT 02/M00 A3019 RMK A01 T00151003  RH  088%=      5-min Rain = 0
KPD4 090921Z 22007KT 02/M00 A3019 RMK A01 T00151004  RH  088%=      5-min Rain = 0
KPD4 090922Z 22007KT 02/M00 A3019 RMK A01 T00151004  RH  088%=      5-min Rain = 0
KPD4 090923Z 22007KT 02/M00 A3019 RMK A01 T00151004  RH  087%=      5-min Rain = 0
KPD4 090924Z 22007KT 02/M00 A3019 RMK A01 T00151004  RH  087%=      5-min Rain = 0
KPD4 090925Z 22007KT 01/M01 A3019 RMK A01 T00141005  RH  087%=      5-min Rain = 0
KPD4 090926Z 22007KT 01/M01 A3019 RMK A01 T00131006  RH  087%=      5-min Rain = 0
KPD4 090927Z 22007KT 01/M01 A3019 RMK A01 T00121006  RH  088%=      5-min Rain = 0
KPD4 090928Z 22007KT 01/M01 A3019 RMK A01 T00121005  RH  088%=      5-min Rain = 0
KPD4 090929Z 22007KT 01/M01 A3019 RMK A01 T00131005  RH  088%=      5-min Rain = 0
KPD4 090930Z 22007KT 01/M01 A3019 RMK A01 T00131005  RH  088%=      5-min Rain = 0
KPD4 090931Z 22007KT 01/M01 A3019 RMK A01 T00131005  RH  088%=      5-min Rain = 0
KPD4 090932Z 22007KT 01/M01 A3019 RMK A01 T00131005  RH  088%=      5-min Rain = 0
KPD4 090933Z 22007KT 01/M01 A3019 RMK A01 T00121006  RH  088%=      5-min Rain = 0
KPD4 090934Z 22007KT 01/M01 A3019 RMK A01 T00121006  RH  088%=      5-min Rain = 0
KPD4 090935Z 22007KT 01/M01 A3019 RMK A01 T00121006  RH  088%=      5-min Rain = 0
KPD4 090936Z 22007KT 01/M01 A3019 RMK A01 T00121006  RH  088%=      5-min Rain = 0
KPD4 090937Z 23007KT 01/M01 A3019 RMK A01 T00121006  RH  088%=      5-min Rain = 0
KPD4 090938Z 23008KT 01/M01 A3019 RMK A01 T00121006  RH  088%=      5-min Rain = 0
KPD4 090939Z 23007KT 01/M01 A3019 RMK A01 T00121006  RH  088%=      5-min Rain = 0
KPD4 090940Z 23007KT 01/M01 A3019 RMK A01 T00131006  RH  087%=      5-min Rain = 0
KPD4 090941Z 23007KT 01/M01 A3019 RMK A01 T00131006  RH  087%=      5-min Rain = 0
KPD4 090942Z 23007KT 01/M01 A3019 RMK A01 T00131006  RH  087%=      5-min Rain = 0
KPD4 090943Z 23007KT 01/M01 A3019 RMK A01 T00131007  RH  087%=      5-min Rain = 0
KPD4 090944Z 23007KT 01/M01 A3019 RMK A01 T00131007  RH  087%=      5-min Rain = 0
KPD4 090945Z 23007KT 01/M01 A3019 RMK A01 T00131007  RH  087%=      5-min Rain = 0
KPD4 090946Z 23007KT 01/M01 A3019 RMK A01 T00131007  RH  087%=      5-min Rain = 0
KPD4 090947Z 23007KT 01/M01 A3019 RMK A01 T00131007  RH  087%=      5-min Rain = 0
KPD4 090948Z 23007KT 01/M01 A3019 RMK A01 T00141006  RH  086%=      5-min Rain = 0
KPD4 090949Z 23007KT 01/M01 A3018 RMK A01 T00141007  RH  086%=      5-min Rain = 0
KPD4 090950Z 23007KT 01/M01 A3018 RMK A01 T00141007  RH  086%=      5-min Rain = 0
KPD4 090951Z 24007KT 01/M01 A3018 RMK A01 T00141007  RH  086%=      5-min Rain = 0
KPD4 090952Z 23007KT 01/M01 A3018 RMK A01 T00141007  RH  086%=      5-min Rain = 0
KPD4 090953Z 23006KT 01/M01 A3018 RMK A01 T00141008  RH  085%=      5-min Rain = 0
KPD4 090954Z 23006KT 01/M01 A3018 RMK A01 T00141008  RH  085%=      5-min Rain = 0
KPD4 090955Z 23007KT 01/M01 A3018 RMK A01 T00141008  RH  085%=      5-min Rain = 0
KPD4 090956Z 23007KT 01/M01 A3018 RMK A01 T00141008  RH  085%=      5-min Rain = 0
KPD4 090957Z 23007KT 01/M01 A3018 RMK A01 T00141008  RH  085%=      5-min Rain = 0
KPD4 090958Z 24007KT 02/M01 A3018 RMK A01 T00151008  RH  085%=      5-min Rain = 0
KPD4 090959Z 24007KT 02/M01 A3018 RMK A01 T00161007  RH  085%=      5-min Rain = 0
KPD4 091000Z 24007KT 02/M01 A3018 RMK A01 T00161008  RH  084%=      5-min Rain = 0
KPD4 091001Z 24007KT 02/M01 A3018 RMK A01 T00161009  RH  084%=      5-min Rain = 0
KPD4 091002Z 24007KT 02/M01 A3018 RMK A01 T00161009  RH  084%=      5-min Rain = 0
KPD4 091003Z 24007KT 02/M01 A3018 RMK A01 T00151009  RH  084%=      5-min Rain = 0
KPD4 091004Z 24007KT 02/M01 A3018 RMK A01 T00151009  RH  084%=      5-min Rain = 0
KPD4 091005Z 24007KT 02/M01 A3018 RMK A01 T00151010  RH  084%=      5-min Rain = 0
KPD4 091006Z 24007KT 02/M01 A3018 RMK A01 T00151010  RH  084%=      5-min Rain = 0
KPD4 091007Z 24008KT 02/M01 A3018 RMK A01 T00151010  RH  084%=      5-min Rain = 0
KPD4 091008Z 24008KT 01/M01 A3018 RMK A01 T00131011  RH  084%=      5-min Rain = 0
KPD4 091009Z 24008KT 01/M01 A3018 RMK A01 T00131011  RH  084%=      5-min Rain = 0
KPD4 091010Z 24008KT 01/M01 A3018 RMK A01 T00131011  RH  084%=      5-min Rain = 0
KPD4 091011Z 24008KT 01/M01 A3018 RMK A01 T00131011  RH  084%=      5-min Rain = 0
KPD4 091012Z 24008KT 01/M01 A3018 RMK A01 T00121011  RH  084%=      5-min Rain = 0
KPD4 091013Z 24008KT 01/M01 A3018 RMK A01 T00121012  RH  085%=      5-min Rain = 0
KPD4 091014Z 23007KT 01/M01 A3018 RMK A01 T00111012  RH  085%=      5-min Rain = 0
KPD4 091015Z 23007KT 01/M01 A3018 RMK A01 T00111012  RH  085%=      5-min Rain = 0
KPD4 091016Z 23007KT 01/M01 A3018 RMK A01 T00101012  RH  085%=      5-min Rain = 0
KPD4 091017Z 23007KT 01/M01 A3018 RMK A01 T00101012  RH  086%=      5-min Rain = 0
KPD4 091018Z 23007KT 01/M01 A3018 RMK A01 T00091012  RH  086%=      5-min Rain = 0
KPD4 091019Z 23007KT 01/M01 A3018 RMK A01 T00091012  RH  086%=      5-min Rain = 0
KPD4 091020Z 23007KT 01/M01 A3018 RMK A01 T00091012  RH  086%=      5-min Rain = 0
KPD4 091021Z 23008KT 01/M01 A3018 RMK A01 T00091012  RH  086%=      5-min Rain = 0
KPD4 091022Z 23008KT 01/M01 A3018 RMK A01 T00091012  RH  086%=      5-min Rain = 0
KPD4 091023Z 23007KT 01/M01 A3018 RMK A01 T00091012  RH  086%=      5-min Rain = 0
KPD4 091024Z 23008KT 01/M01 A3018 RMK A01 T00091012  RH  086%=      5-min Rain = 0
KPD4 091025Z 24008KT 01/M01 A3018 RMK A01 T00101011  RH  086%=      5-min Rain = 0
KPD4 091026Z 24008KT 01/M01 A3018 RMK A01 T00111011  RH  085%=      5-min Rain = 0
KPD4 091027Z 24008KT 01/M01 A3018 RMK A01 T00111011  RH  085%=      5-min Rain = 0
KPD4 091028Z 24008KT 01/M01 A3018 RMK A01 T00111011  RH  085%=      5-min Rain = 0
KPD4 091029Z 24008KT 01/M01 A3018 RMK A01 T00121011  RH  085%=      5-min Rain = 0
KPD4 091030Z 24008KT 01/M01 A3018 RMK A01 T00121012  RH  085%=      5-min Rain = 0
KPD4 091031Z 24008KT 01/M01 A3018 RMK A01 T00121012  RH  085%=      5-min Rain = 0
KPD4 091032Z 24008KT 01/M01 A3018 RMK A01 T00111012  RH  085%=      5-min Rain = 0
KPD4 091033Z 24008KT 01/M01 A3018 RMK A01 T00111012  RH  085%=      5-min Rain = 0
KPD4 091034Z 24007KT 01/M01 A3018 RMK A01 T00111012  RH  085%=      5-min Rain = 0
KPD4 091035Z 24007KT 01/M01 A3018 RMK A01 T00111012  RH  085%=      5-min Rain = 0
KPD4 091036Z 24007KT 01/M01 A3018 RMK A01 T00111012  RH  085%=      5-min Rain = 0
KPD4 091037Z 24007KT 01/M01 A3018 RMK A01 T00111012  RH  085%=      5-min Rain = 0
KPD4 091038Z 24007KT 01/M01 A3018 RMK A01 T00111012  RH  084%=      5-min Rain = 0
KPD4 091039Z 24007KT 01/M01 A3018 RMK A01 T00111012  RH  084%=      5-min Rain = 0
KPD4 091040Z 24007KT 01/M01 A3018 RMK A01 T00111012  RH  084%=      5-min Rain = 0
KPD4 091041Z 24006KT 01/M01 A3018 RMK A01 T00121012  RH  084%=      5-min Rain = 0
KPD4 091042Z 25006KT 01/M01 A3018 RMK A01 T00121012  RH  084%=      5-min Rain = 0
KPD4 091043Z 24006KT 01/M01 A3018 RMK A01 T00121013  RH  084%=      5-min Rain = 0
KPD4 091044Z 24005KT 01/M01 A3018 RMK A01 T00121013  RH  084%=      5-min Rain = 0
KPD4 091045Z 24005KT 01/M01 A3018 RMK A01 T00101014  RH  084%=      5-min Rain = 0
KPD4 091046Z 23005KT 01/M01 A3018 RMK A01 T00101013  RH  084%=      5-min Rain = 0
KPD4 091047Z 23005KT 01/M01 A3018 RMK A01 T00101013  RH  085%=      5-min Rain = 0
KPD4 091048Z 23006KT 01/M01 A3018 RMK A01 T00101013  RH  084%=      5-min Rain = 0
KPD4 091049Z 24006KT 01/M01 A3018 RMK A01 T00111012  RH  084%=      5-min Rain = 0
KPD4 091050Z 24007KT 01/M01 A3018 RMK A01 T00121012  RH  084%=      5-min Rain = 0
KPD4 091051Z 24007KT 01/M01 A3018 RMK A01 T00131012  RH  084%=      5-min Rain = 0
KPD4 091052Z 24007KT 01/M01 A3018 RMK A01 T00141011  RH  083%=      5-min Rain = 0
KPD4 091053Z 23007KT 01/M01 A3018 RMK A01 T00141012  RH  083%=      5-min Rain = 0
KPD4 091054Z 23007KT 01/M01 A3018 RMK A01 T00141012  RH  083%=      5-min Rain = 0
KPD4 091055Z 24007KT 01/M01 A3018 RMK A01 T00131012  RH  083%=      5-min Rain = 0
KPD4 091056Z 24007KT 01/M01 A3018 RMK A01 T00141012  RH  083%=      5-min Rain = 0
KPD4 091057Z 24006KT 01/M01 A3018 RMK A01 T00131012  RH  083%=      5-min Rain = 0
KPD4 091058Z 24006KT 01/M01 A3018 RMK A01 T00131013  RH  083%=      5-min Rain = 0
KPD4 091059Z 24006KT 01/M01 A3018 RMK A01 T00131013  RH  083%=      5-min Rain = 0
KPD4 091100Z 24006KT 01/M01 A3018 RMK A01 T00131014  RH  083%=      5-min Rain = 0
KPD4 091101Z 24006KT 01/M01 A3018 RMK A01 T00121014  RH  083%=      5-min Rain = 0
KPD4 091102Z 24006KT 01/M01 A3018 RMK A01 T00121014  RH  083%=      5-min Rain = 0
KPD4 091103Z 24007KT 01/M01 A3018 RMK A01 T00121014  RH  083%=      5-min Rain = 0
KPD4 091104Z 24007KT 01/M01 A3018 RMK A01 T00121014  RH  083%=      5-min Rain = 0
KPD4 091105Z 24007KT 01/M01 A3018 RMK A01 T00121014  RH  083%=      5-min Rain = 0
KPD4 091106Z 25007KT 01/M02 A3018 RMK A01 T00111015  RH  083%=      5-min Rain = 0
KPD4 091107Z 25006KT 01/M01 A3018 RMK A01 T00111014  RH  083%=      5-min Rain = 0
KPD4 091108Z 26006KT 01/M02 A3018 RMK A01 T00111015  RH  083%=      5-min Rain = 0
KPD4 091109Z 27005KT 01/M02 A3018 RMK A01 T00111015  RH  083%=      5-min Rain = 0
KPD4 091110Z 30004KT 01/M02 A3018 RMK A01 T00111015  RH  082%=      5-min Rain = 0
KPD4 091111Z 02009G14KT 01/M02 A3019 RMK A01 T00101017  RH  082%=      5-min Rain = 0
KPD4 091112Z 03012KT 01/M02 A3019 RMK A01 T00061019  RH  083%=      5-min Rain = 0
KPD4 091113Z 01006G12KT 01/M02 A3019 RMK A01 T00051016  RH  086%=      5-min Rain = 0
KPD4 091114Z 32004KT 01/M01 A3018 RMK A01 T00081013  RH  086%=      5-min Rain = 0
KPD4 091115Z 30004KT 01/M01 A3018 RMK A01 T00141009  RH  085%=      5-min Rain = 0
KPD4 091116Z 31005KT 02/M01 A3018 RMK A01 T00181010  RH  082%=      5-min Rain = 0
KPD4 091117Z 35008KT 02/M01 A3019 RMK A01 T00191012  RH  080%=      5-min Rain = 0
KPD4 091118Z 34007KT 02/M01 A3018 RMK A01 T00171014  RH  080%=      5-min Rain = 0
KPD4 091119Z 32005KT 01/M02 A3018 RMK A01 T00141015  RH  081%=      5-min Rain = 0
KPD4 091120Z 32005KT 01/M02 A3018 RMK A01 T00131016  RH  081%=      5-min Rain = 0
KPD4 091121Z 35005KT 01/M02 A3018 RMK A01 T00121016  RH  082%=      5-min Rain = 0
KPD4 091122Z 01006KT 01/M02 A3019 RMK A01 T00111017  RH  082%=      5-min Rain = 0
KPD4 091123Z 03006KT 01/M02 A3019 RMK A01 T00081018  RH  083%=      5-min Rain = 0
KPD4 091124Z 03005KT 01/M02 A3019 RMK A01 T00061018  RH  084%=      5-min Rain = 0
KPD4 091125Z 03004KT 01/M02 A3019 RMK A01 T00051018  RH  085%=      5-min Rain = 0
KPD4 091126Z 00004KT 01/M02 A3019 RMK A01 T00051017  RH  085%=      5-min Rain = 0
KPD4 091127Z 35004KT 01/M02 A3019 RMK A01 T00061015  RH  086%=      5-min Rain = 0
KPD4 091128Z 02005KT 01/M01 A3019 RMK A01 T00091014  RH  085%=      5-min Rain = 0
KPD4 091129Z 03005KT 01/M01 A3019 RMK A01 T00111014  RH  083%=      5-min Rain = 0
KPD4 091130Z 03005KT 01/M02 A3019 RMK A01 T00121015  RH  082%=      5-min Rain = 0
KPD4 091131Z 02004KT 01/M02 A3019 RMK A01 T00121016  RH  082%=      5-min Rain = 0
KPD4 091132Z 36003KT 01/M02 A3019 RMK A01 T00121016  RH  082%=      5-min Rain = 0
KPD4 091133Z 34004KT 01/M02 A3019 RMK A01 T00121016  RH  082%=      5-min Rain = 0
KPD4 091134Z 33005KT 01/M02 A3019 RMK A01 T00131015  RH  082%=      5-min Rain = 0
KPD4 091135Z 32005KT 02/M01 A3019 RMK A01 T00151014  RH  081%=      5-min Rain = 0
KPD4 091136Z 31004KT 02/M01 A3019 RMK A01 T00171014  RH  080%=      5-min Rain = 0
KPD4 091137Z 30003KT 02/M01 A3019 RMK A01 T00181013  RH  080%=      5-min Rain = 0
KPD4 091138Z 28002KT 02/M01 A3019 RMK A01 T00191013  RH  079%=      5-min Rain = 0
KPD4 091139Z 25000KT 02/M01 A3019 RMK A01 T00201013  RH  078%=      5-min Rain = 0
KPD4 091140Z 18001KT 02/M02 A3019 RMK A01 T00191016  RH  078%=      5-min Rain = 0
KPD4 091141Z 17003KT 02/M02 A3019 RMK A01 T00161017  RH  078%=      5-min Rain = 0
KPD4 091142Z 16002KT 01/M02 A3019 RMK A01 T00141017  RH  080%=      5-min Rain = 0
KPD4 091143Z 16002KT 01/M02 A3019 RMK A01 T00131016  RH  081%=      5-min Rain = 0
KPD4 091144Z 16001KT 01/M02 A3019 RMK A01 T00131016  RH  081%=      5-min Rain = 0
KPD4 091145Z 23001KT 02/M01 A3019 RMK A01 T00151014  RH  081%=      5-min Rain = 0
KPD4 091146Z 23003KT 02/M02 A3019 RMK A01 T00151016  RH  080%=      5-min Rain = 0
KPD4 091147Z 23005KT 01/M02 A3019 RMK A01 T00121019  RH  080%=      5-min Rain = 0
KPD4 091148Z 23005KT 01/M02 A3019 RMK A01 T00081020  RH  081%=      5-min Rain = 0
KPD4 091149Z 22005KT 01/M02 A3019 RMK A01 T00051023  RH  081%=      5-min Rain = 0
KPD4 091150Z 22005KT 00/M02 A3019 RMK A01 T00031023  RH  083%=      5-min Rain = 0
KPD4 091151Z 21005KT 00/M02 A3019 RMK A01 T00021022  RH  084%=      5-min Rain = 0
KPD4 091152Z 21005KT 00/M02 A3019 RMK A01 T00021020  RH  085%=      5-min Rain = 0
KPD4 091153Z 21005KT 00/M02 A3019 RMK A01 T00021020  RH  085%=      5-min Rain = 0
KPD4 091154Z 21006KT 00/M02 A3019 RMK A01 T00011021  RH  085%=      5-min Rain = 0
KPD4 091155Z 21007KT 00/M02 A3018 RMK A01 T00011020  RH  086%=      5-min Rain = 0
KPD4 091156Z 22005KT 00/M02 A3018 RMK A01 T00021020  RH  085%=      5-min Rain = 0
KPD4 091157Z 22006KT 00/M02 A3018 RMK A01 T00021019  RH  086%=      5-min Rain = 0
KPD4 091158Z 22006KT 00/M02 A3018 RMK A01 T00021019  RH  086%=      5-min Rain = 0
KPD4 091159Z 22007KT 00/M02 A3018 RMK A01 T00021019  RH  086%=      5-min Rain = 0
KPD4 091200Z 22006KT 00/M02 A3018 RMK A01 T00021019  RH  086%=      5-min Rain = 0
KPD4 091201Z 21006KT 00/M02 A3018 RMK A01 T00021018  RH  086%=      5-min Rain = 0
KPD4 091202Z 21006KT 00/M02 A3018 RMK A01 T00031017  RH  086%=      5-min Rain = 0
KPD4 091203Z 21005KT 00/M02 A3018 RMK A01 T00041018  RH  086%=      5-min Rain = 0
KPD4 091204Z 21005KT 00/M02 A3018 RMK A01 T00041018  RH  085%=      5-min Rain = 0
KPD4 091205Z 21005KT 00/M02 A3018 RMK A01 T00041018  RH  085%=      5-min Rain = 0
KPD4 091206Z 21005KT 00/M02 A3018 RMK A01 T00031019  RH  085%=      5-min Rain = 0
KPD4 091207Z 22005KT 00/M02 A3018 RMK A01 T00021020  RH  085%=      5-min Rain = 0
KPD4 091208Z 22005KT 00/M02 A3018 RMK A01 T00011021  RH  085%=      5-min Rain = 0
KPD4 091209Z 22005KT 00/M02 A3018 RMK A01 T00011020  RH  086%=      5-min Rain = 0
KPD4 091210Z 22005KT 00/02 A3018 RMK A01 T00000-21  RH  086%=      5-min Rain = 0
KPD4 091211Z 23005KT 00/M02 A3018 RMK A01 T00011019  RH  086%=      5-min Rain = 0
KPD4 091212Z 23005KT 00/M02 A3018 RMK A01 T00031018  RH  086%=      5-min Rain = 0
KPD4 091213Z 23005KT 01/M02 A3018 RMK A01 T00051017  RH  085%=      5-min Rain = 0
KPD4 091214Z 23006KT 01/M02 A3018 RMK A01 T00051019  RH  084%=      5-min Rain = 0
KPD4 091215Z 23006KT 01/M02 A3018 RMK A01 T00051019  RH  084%=      5-min Rain = 0
KPD4 091216Z 23006KT 01/M02 A3018 RMK A01 T00061018  RH  084%=      5-min Rain = 0
KPD4 091217Z 23006KT 01/M02 A3018 RMK A01 T00061019  RH  084%=      5-min Rain = 0
KPD4 091218Z 23006KT 01/M02 A3018 RMK A01 T00061019  RH  083%=      5-min Rain = 0
KPD4 091219Z 23006KT 01/M02 A3018 RMK A01 T00071019  RH  083%=      5-min Rain = 0
KPD4 091220Z 24005KT 01/M02 A3018 RMK A01 T00071019  RH  083%=      5-min Rain = 0
KPD4 091221Z 24005KT 01/M02 A3019 RMK A01 T00081018  RH  083%=      5-min Rain = 0
KPD4 091222Z 24004KT 01/M02 A3019 RMK A01 T00081018  RH  083%=      5-min Rain = 0
KPD4 091223Z 24004KT 01/M02 A3019 RMK A01 T00101017  RH  082%=      5-min Rain = 0
KPD4 091224Z 24005KT 01/M02 A3019 RMK A01 T00101018  RH  082%=      5-min Rain = 0
KPD4 091225Z 24005KT 01/M02 A3019 RMK A01 T00101018  RH  081%=      5-min Rain = 0
KPD4 091226Z 24006KT 01/M02 A3019 RMK A01 T00101019  RH  081%=      5-min Rain = 0
KPD4 091227Z 24006KT 01/M02 A3019 RMK A01 T00091020  RH  081%=      5-min Rain = 0
KPD4 091228Z 24007KT 01/M02 A3019 RMK A01 T00091019  RH  082%=      5-min Rain = 0
KPD4 091229Z 25007KT 01/M02 A3019 RMK A01 T00081019  RH  082%=      5-min Rain = 0
KPD4 091230Z 25007KT 01/M02 A3019 RMK A01 T00071020  RH  082%=      5-min Rain = 0
KPD4 091231Z 25007KT 01/M02 A3019 RMK A01 T00061021  RH  082%=      5-min Rain = 0
KPD4 091232Z 25007KT 01/M02 A3019 RMK A01 T00051022  RH  082%=      5-min Rain = 0
KPD4 091233Z 25007KT 00/M02 A3019 RMK A01 T00041022  RH  083%=      5-min Rain = 0
KPD4 091234Z 25007KT 00/M02 A3019 RMK A01 T00031022  RH  083%=      5-min Rain = 0
KPD4 091235Z 25007KT 00/M02 A3019 RMK A01 T00031022  RH  083%=      5-min Rain = 0
KPD4 091236Z 26007KT 00/M02 A3019 RMK A01 T00041021  RH  083%=      5-min Rain = 0
KPD4 091237Z 26007KT 01/M02 A3019 RMK A01 T00051021  RH  083%=      5-min Rain = 0
KPD4 091238Z 26007KT 01/M02 A3019 RMK A01 T00061021  RH  082%=      5-min Rain = 0
KPD4 091239Z 27007KT 01/M02 A3019 RMK A01 T00061021  RH  082%=      5-min Rain = 0
KPD4 091240Z 27007KT 01/M02 A3019 RMK A01 T00071021  RH  082%=      5-min Rain = 0
KPD4 091241Z 26007KT 01/M02 A3019 RMK A01 T00071022  RH  081%=      5-min Rain = 0
KPD4 091242Z 26007KT 01/M02 A3019 RMK A01 T00071022  RH  081%=      5-min Rain = 0
KPD4 091243Z 25006KT 01/M02 A3019 RMK A01 T00071023  RH  081%=      5-min Rain = 0
KPD4 091244Z 25006KT 01/M02 A3019 RMK A01 T00051024  RH  081%=      5-min Rain = 0
KPD4 091245Z 24006KT 00/M03 A3019 RMK A01 T00031025  RH  082%=      5-min Rain = 0
KPD4 091246Z 24006KT 00/M02 A3019 RMK A01 T00021024  RH  083%=      5-min Rain = 0
KPD4 091247Z 24006KT 00/M02 A3019 RMK A01 T00021023  RH  083%=      5-min Rain = 0
KPD4 091248Z 24005KT 00/M02 A3019 RMK A01 T00031022  RH  083%=      5-min Rain = 0
KPD4 091249Z 25005KT 00/M02 A3019 RMK A01 T00031023  RH  083%=      5-min Rain = 0
KPD4 091250Z 25005KT 00/M02 A3019 RMK A01 T00031022  RH  083%=      5-min Rain = 0
KPD4 091251Z 25006KT 00/M02 A3019 RMK A01 T00031023  RH  083%=      5-min Rain = 0
KPD4 091252Z 24006KT 00/M02 A3019 RMK A01 T00041022  RH  083%=      5-min Rain = 0
KPD4 091253Z 24005KT 00/M02 A3019 RMK A01 T00041023  RH  082%=      5-min Rain = 0
KPD4 091254Z 24006KT 01/M02 A3019 RMK A01 T00051023  RH  082%=      5-min Rain = 0
KPD4 091255Z 24006KT 01/M02 A3019 RMK A01 T00051023  RH  082%=      5-min Rain = 0
KPD4 091256Z 24005KT 01/M02 A3019 RMK A01 T00061022  RH  082%=      5-min Rain = 0
KPD4 091257Z 24005KT 01/M02 A3019 RMK A01 T00061022  RH  082%=      5-min Rain = 0
KPD4 091258Z 24005KT 01/M02 A3019 RMK A01 T00051022  RH  082%=      5-min Rain = 0
KPD4 091259Z 24006KT 00/M02 A3019 RMK A01 T00041023  RH  082%=      5-min Rain = 0
KPD4 091300Z 24006KT 01/M02 A3019 RMK A01 T00051022  RH  082%=      5-min Rain = 0
KPD4 091301Z 24007KT 00/M02 A3019 RMK A01 T00041022  RH  082%=      5-min Rain = 0
KPD4 091302Z 23007KT 01/M02 A3019 RMK A01 T00051022  RH  082%=      5-min Rain = 0
KPD4 091303Z 24007KT 01/M02 A3019 RMK A01 T00051022  RH  082%=      5-min Rain = 0
KPD4 091304Z 24007KT 01/M02 A3019 RMK A01 T00051022  RH  082%=      5-min Rain = 0
KPD4 091305Z 25007KT 01/M02 A3019 RMK A01 T00051022  RH  083%=      5-min Rain = 0
KPD4 091306Z 25007KT 01/M02 A3019 RMK A01 T00061021  RH  082%=      5-min Rain = 0
KPD4 091307Z 25006KT 01/M02 A3019 RMK A01 T00071021  RH  081%=      5-min Rain = 0
KPD4 091308Z 25006KT 01/M02 A3019 RMK A01 T00071022  RH  081%=      5-min Rain = 0
KPD4 091309Z 25006KT 01/M02 A3019 RMK A01 T00071023  RH  081%=      5-min Rain = 0
KPD4 091310Z 25006KT 01/M02 A3019 RMK A01 T00071023  RH  080%=      5-min Rain = 0
KPD4 091311Z 24006KT 01/M02 A3019 RMK A01 T00071023  RH  080%=      5-min Rain = 0
KPD4 091312Z 25006KT 01/M02 A3019 RMK A01 T00061024  RH  080%=      5-min Rain = 0
KPD4 091313Z 25006KT 01/M02 A3019 RMK A01 T00071023  RH  081%=      5-min Rain = 0
KPD4 091314Z 25006KT 01/M02 A3019 RMK A01 T00061023  RH  081%=      5-min Rain = 0
KPD4 091315Z 25005KT 01/M02 A3019 RMK A01 T00061023  RH  081%=      5-min Rain = 0
KPD4 091316Z 24005KT 01/M02 A3019 RMK A01 T00061024  RH  081%=      5-min Rain = 0
KPD4 091317Z 24004KT 01/M02 A3019 RMK A01 T00061024  RH  080%=      5-min Rain = 0
KPD4 091318Z 24004KT 00/M03 A3019 RMK A01 T00041026  RH  080%=      5-min Rain = 0
KPD4 091319Z 24005KT 00/M03 A3019 RMK A01 T00021026  RH  081%=      5-min Rain = 0
KPD4 091320Z 24005KT 00/M03 A3019 RMK A01 T00021025  RH  082%=      5-min Rain = 0
KPD4 091321Z 24005KT 00/M02 A3019 RMK A01 T00031024  RH  082%=      5-min Rain = 0
KPD4 091322Z 25006KT 00/M02 A3019 RMK A01 T00041023  RH  082%=      5-min Rain = 0
KPD4 091323Z 25006KT 01/M02 A3019 RMK A01 T00051024  RH  081%=      5-min Rain = 0
KPD4 091324Z 25006KT 01/M02 A3019 RMK A01 T00051024  RH  081%=      5-min Rain = 0
KPD4 091325Z 25006KT 01/M02 A3019 RMK A01 T00051024  RH  081%=      5-min Rain = 0
KPD4 091326Z 25006KT 00/M02 A3019 RMK A01 T00041024  RH  081%=      5-min Rain = 0
KPD4 091327Z 25006KT 00/M03 A3019 RMK A01 T00041025  RH  081%=      5-min Rain = 0
KPD4 091328Z 24006KT 00/M03 A3019 RMK A01 T00031025  RH  081%=      5-min Rain = 0
KPD4 091329Z 24006KT 00/M03 A3019 RMK A01 T00021025  RH  082%=      5-min Rain = 0
KPD4 091330Z 24006KT 00/M03 A3019 RMK A01 T00021025  RH  082%=      5-min Rain = 0
KPD4 091331Z 24006KT 00/M03 A3019 RMK A01 T00021025  RH  082%=      5-min Rain = 0
KPD4 091332Z 25006KT 00/M03 A3019 RMK A01 T00021025  RH  082%=      5-min Rain = 0
KPD4 091333Z 25006KT 00/M03 A3019 RMK A01 T00031025  RH  082%=      5-min Rain = 0
KPD4 091334Z 25006KT 00/M03 A3019 RMK A01 T00031025  RH  082%=      5-min Rain = 0
KPD4 091335Z 25006KT 00/M03 A3019 RMK A01 T00031025  RH  082%=      5-min Rain = 0
KPD4 091336Z 25006KT 00/M03 A3019 RMK A01 T00031025  RH  082%=      5-min Rain = 0
KPD4 091337Z 25005KT 00/M03 A3019 RMK A01 T00031025  RH  082%=      5-min Rain = 0
KPD4 091338Z 25006KT 00/M03 A3019 RMK A01 T00031025  RH  082%=      5-min Rain = 0
KPD4 091339Z 24006KT 00/M03 A3019 RMK A01 T00031025  RH  082%=      5-min Rain = 0
KPD4 091340Z 24006KT 00/M02 A3019 RMK A01 T00021024  RH  082%=      5-min Rain = 0
KPD4 091341Z 24006KT 00/M02 A3019 RMK A01 T00021024  RH  083%=      5-min Rain = 0
KPD4 091342Z 24006KT 00/M02 A3019 RMK A01 T00021023  RH  083%=      5-min Rain = 0
KPD4 091343Z 24006KT 00/M02 A3019 RMK A01 T00021023  RH  084%=      5-min Rain = 0
KPD4 091344Z 24006KT 00/M02 A3019 RMK A01 T00031022  RH  083%=      5-min Rain = 0
KPD4 091345Z 24006KT 00/M02 A3019 RMK A01 T00041021  RH  083%=      5-min Rain = 0
KPD4 091346Z 24006KT 00/M02 A3019 RMK A01 T00041021  RH  083%=      5-min Rain = 0
KPD4 091347Z 24006KT 01/M02 A3019 RMK A01 T00051020  RH  083%=      5-min Rain = 0
KPD4 091348Z 24006KT 01/M02 A3019 RMK A01 T00051020  RH  083%=      5-min Rain = 0
KPD4 091349Z 24006KT 01/M02 A3019 RMK A01 T00061019  RH  083%=      5-min Rain = 0
KPD4 091350Z 25006KT 01/M02 A3019 RMK A01 T00061019  RH  083%=      5-min Rain = 0
KPD4 091351Z 25006KT 01/M02 A3019 RMK A01 T00071019  RH  082%=      5-min Rain = 0
KPD4 091352Z 25006KT 01/M02 A3019 RMK A01 T00081019  RH  082%=      5-min Rain = 0
KPD4 091353Z 26006KT 01/M02 A3019 RMK A01 T00081019  RH  082%=      5-min Rain = 0
KPD4 091354Z 25006KT 01/M02 A3019 RMK A01 T00081019  RH  082%=      5-min Rain = 0
KPD4 091355Z 25005KT 01/M02 A3019 RMK A01 T00091018  RH  082%=      5-min Rain = 0
KPD4 091356Z 25004KT 01/M02 A3019 RMK A01 T00101017  RH  082%=      5-min Rain = 0
KPD4 091357Z 24004KT 01/M02 A3019 RMK A01 T00111016  RH  082%=      5-min Rain = 0
KPD4 091358Z 25004KT 01/M02 A3019 RMK A01 T00121015  RH  082%=      5-min Rain = 0
KPD4 091359Z 25004KT 01/M01 A3019 RMK A01 T00131014  RH  082%=      5-min Rain = 0
KPD4 091400Z 25004KT 01/M01 A3019 RMK A01 T00141013  RH  082%=      5-min Rain = 0
KPD4 091401Z 24004KT 02/M01 A3019 RMK A01 T00161013  RH  082%=      5-min Rain = 0
KPD4 091402Z 24005KT 02/M01 A3019 RMK A01 T00171012  RH  081%=      5-min Rain = 0
KPD4 091403Z 24004KT 02/M01 A3019 RMK A01 T00181011  RH  081%=      5-min Rain = 0
KPD4 091404Z 25004KT 02/M01 A3019 RMK A01 T00191011  RH  081%=      5-min Rain = 0
KPD4 091405Z 25005KT 02/M01 A3019 RMK A01 T00191011  RH  080%=      5-min Rain = 0
KPD4 091406Z 25005KT 02/M01 A3019 RMK A01 T00201010  RH  080%=      5-min Rain = 0
KPD4 091407Z 25005KT 02/M01 A3019 RMK A01 T00211009  RH  080%=      5-min Rain = 0
KPD4 091408Z 25005KT 02/M01 A3019 RMK A01 T00241007  RH  080%=      5-min Rain = 0
KPD4 091409Z 24005KT 03/M01 A3019 RMK A01 T00251007  RH  079%=      5-min Rain = 0
KPD4 091410Z 24004KT 03/M00 A3019 RMK A01 T00271004  RH  080%=      5-min Rain = 0
KPD4 091411Z 24004KT 03/M00 A3019 RMK A01 T00291004  RH  079%=      5-min Rain = 0
KPD4 091412Z 24004KT 03/M01 A3019 RMK A01 T00301005  RH  078%=      5-min Rain = 0
KPD4 091413Z 24004KT 03/M00 A3019 RMK A01 T00321004  RH  077%=      5-min Rain = 0
KPD4 091414Z 24003KT 03/M00 A3019 RMK A01 T00341003  RH  077%=      5-min Rain = 0
KPD4 091415Z 24003KT 04/M00 A3019 RMK A01 T00351002  RH  077%=      5-min Rain = 0
KPD4 091416Z 25004KT 04/M00 A3019 RMK A01 T00361003  RH  075%=      5-min Rain = 0
KPD4 091417Z 25004KT 04/M00 A3019 RMK A01 T00371004  RH  075%=      5-min Rain = 0
KPD4 091418Z 25004KT 04/M00 A3019 RMK A01 T00381003  RH  075%=      5-min Rain = 0
KPD4 091419Z 26004KT 04/M00 A3019 RMK A01 T00391004  RH  074%=      5-min Rain = 0
KPD4 091420Z 27005KT 04/M00 A3019 RMK A01 T00401003  RH  074%=      5-min Rain = 0
KPD4 091421Z 27004KT 04/M00 A3019 RMK A01 T00411002  RH  074%=      5-min Rain = 0
KPD4 091422Z 27004KT 04/M00 A3019 RMK A01 T00421001  RH  074%=      5-min Rain = 0
KPD4 091423Z 28003KT 04/00 A3019 RMK A01 T00440001  RH  074%=      5-min Rain = 0
KPD4 091424Z 28004KT 05/00 A3019 RMK A01 T00460002  RH  073%=      5-min Rain = 0
KPD4 091425Z 27004KT 05/00 A3019 RMK A01 T004800-0  RH  071%=      5-min Rain = 0
KPD4 091426Z 28004KT 05/00 A3019 RMK A01 T00510001  RH  070%=      5-min Rain = 0
KPD4 091427Z 27004KT 05/00 A3019 RMK A01 T00530004  RH  070%=      5-min Rain = 0
KPD4 091428Z 27004KT 06/00 A3019 RMK A01 T00550003  RH  069%=      5-min Rain = 0
KPD4 091429Z 25004KT 06/01 A3019 RMK A01 T00570005  RH  070%=      5-min Rain = 0
KPD4 091430Z 24003KT 06/01 A3019 RMK A01 T00590006  RH  069%=      5-min Rain = 0
KPD4 091431Z 24003KT 06/01 A3019 RMK A01 T00610006  RH  068%=      5-min Rain = 0
KPD4 091432Z 23003KT 06/01 A3019 RMK A01 T00620008  RH  069%=      5-min Rain = 0
KPD4 091433Z 23003KT 06/01 A3019 RMK A01 T00620011  RH  070%=      5-min Rain = 0
KPD4 091434Z 23003KT 06/01 A3019 RMK A01 T00600010  RH  070%=      5-min Rain = 0
KPD4 091435Z 23003KT 06/01 A3019 RMK A01 T00570009  RH  071%=      5-min Rain = 0
KPD4 091436Z 24003KT 05/01 A3019 RMK A01 T00540010  RH  073%=      5-min Rain = 0
KPD4 091437Z 25003KT 05/01 A3019 RMK A01 T00520010  RH  074%=      5-min Rain = 0
KPD4 091438Z 25003KT 05/01 A3019 RMK A01 T00520012  RH  075%=      5-min Rain = 0
KPD4 091439Z 25002KT 05/01 A3019 RMK A01 T00510013  RH  076%=      5-min Rain = 0
KPD4 091440Z 25002KT 05/01 A3019 RMK A01 T00510013  RH  077%=      5-min Rain = 0
KPD4 091441Z 25003KT 05/02 A3019 RMK A01 T00520016  RH  077%=      5-min Rain = 0
KPD4 091442Z 24003KT 06/02 A3019 RMK A01 T00550019  RH  077%=      5-min Rain = 0
KPD4 091443Z 24002KT 06/02 A3019 RMK A01 T00570018  RH  076%=      5-min Rain = 0
KPD4 091444Z 23002KT 06/02 A3019 RMK A01 T00590018  RH  075%=      5-min Rain = 0
KPD4 091445Z 23002KT 06/02 A3019 RMK A01 T00590016  RH  074%=      5-min Rain = 0
KPD4 091446Z 22002KT 06/02 A3019 RMK A01 T00590017  RH  074%=      5-min Rain = 0
KPD4 091447Z 21003KT 06/02 A3019 RMK A01 T00600017  RH  074%=      5-min Rain = 0
KPD4 091448Z 20003KT 06/02 A3019 RMK A01 T00610017  RH  073%=      5-min Rain = 0
KPD4 091449Z 19003KT 06/02 A3019 RMK A01 T00620018  RH  073%=      5-min Rain = 0
KPD4 091450Z 20004KT 06/02 A3019 RMK A01 T00630016  RH  072%=      5-min Rain = 0
KPD4 091451Z 18004KT 06/02 A3019 RMK A01 T00640015  RH  071%=      5-min Rain = 0
KPD4 091452Z 19003KT 07/02 A3019 RMK A01 T00650016  RH  071%=      5-min Rain = 0
KPD4 091453Z 19003KT 07/02 A3019 RMK A01 T00650015  RH  070%=      5-min Rain = 0
KPD4 091454Z 19003KT 07/01 A3019 RMK A01 T00660014  RH  070%=      5-min Rain = 0
KPD4 091455Z 20004KT 07/02 A3019 RMK A01 T00650015  RH  070%=      5-min Rain = 0
KPD4 091456Z 21004KT 07/02 A3019 RMK A01 T00650015  RH  071%=      5-min Rain = 0
KPD4 091457Z 22004KT 07/02 A3019 RMK A01 T00660017  RH  071%=      5-min Rain = 0
KPD4 091458Z 23005KT 07/02 A3019 RMK A01 T00680019  RH  071%=      5-min Rain = 0
KPD4 091459Z 23005KT 07/02 A3019 RMK A01 T00710017  RH  069%=      5-min Rain = 0
KPD4 091500Z 24006KT 07/01 A3019 RMK A01 T00720013  RH  066%=      5-min Rain = 0
KPD4 091501Z 25006KT 07/01 A3019 RMK A01 T00730014  RH  066%=      5-min Rain = 0
KPD4 091502Z 24005KT 08/02 A3019 RMK A01 T00750015  RH  065%=      5-min Rain = 0
KPD4 091503Z 25005KT 08/02 A3019 RMK A01 T00770018  RH  066%=      5-min Rain = 0
KPD4 091504Z 24005KT 08/02 A3019 RMK A01 T00790017  RH  065%=      5-min Rain = 0
KPD4 091505Z 24004KT 08/02 A3019 RMK A01 T00800016  RH  064%=      5-min Rain = 0
KPD4 091506Z 25004KT 08/02 A3019 RMK A01 T00810018  RH  064%=      5-min Rain = 0
KPD4 091507Z 25005KT 08/02 A3019 RMK A01 T00830016  RH  063%=      5-min Rain = 0
KPD4 091508Z 25004KT 08/01 A3019 RMK A01 T00840013  RH  061%=      5-min Rain = 0
KPD4 091509Z 25005KT 09/02 A3019 RMK A01 T00850018  RH  063%=      5-min Rain = 0
KPD4 091510Z 25006KT 09/02 A3019 RMK A01 T00870015  RH  061%=      5-min Rain = 0
KPD4 091511Z 24006KT 09/01 A3019 RMK A01 T00870014  RH  060%=      5-min Rain = 0
KPD4 091512Z 25006KT 09/01 A3019 RMK A01 T00880014  RH  060%=      5-min Rain = 0
KPD4 091513Z 26006KT 09/01 A3019 RMK A01 T00900013  RH  059%=      5-min Rain = 0
KPD4 091514Z 25006KT 09/01 A3019 RMK A01 T00900013  RH  058%=      5-min Rain = 0
KPD4 091515Z 25005KT 09/01 A3019 RMK A01 T00920011  RH  057%=      5-min Rain = 0
KPD4 091516Z 25004KT 09/01 A3019 RMK A01 T00920014  RH  058%=      5-min Rain = 0
KPD4 091517Z 25004KT 10/02 A3019 RMK A01 T00950017  RH  058%=      5-min Rain = 0
KPD4 091518Z 27004KT 10/01 A3019 RMK A01 T00960013  RH  056%=      5-min Rain = 0
KPD4 091519Z 28004KT 10/01 A302 RMK A01 T00980012  RH  055%=      5-min Rain = 0
KPD4 091520Z 27004KT 10/02 A302 RMK A01 T00990015  RH  056%=      5-min Rain = 0
KPD4 091521Z 28004KT 10/01 A302 RMK A01 T01000011  RH  054%=      5-min Rain = 0
KPD4 091522Z 28003KT 10/01 A302 RMK A01 T01030014  RH  054%=      5-min Rain = 0
KPD4 091523Z 27004KT 10/02 A302 RMK A01 T01040015  RH  054%=      5-min Rain = 0
KPD4 091524Z 28003KT 11/02 A302 RMK A01 T01050016  RH  054%=      5-min Rain = 0
KPD4 091525Z 26004KT 11/02 A302 RMK A01 T01080015  RH  053%=      5-min Rain = 0
KPD4 091526Z 26004KT 11/01 A302 RMK A01 T01080012  RH  052%=      5-min Rain = 0
KPD4 091527Z 28004KT 11/01 A302 RMK A01 T01090014  RH  052%=      5-min Rain = 0
KPD4 091528Z 27004KT 11/02 A302 RMK A01 T01100016  RH  052%=      5-min Rain = 0
KPD4 091529Z 28004KT 11/01 A302 RMK A01 T01120013  RH  050%=      5-min Rain = 0
KPD4 091530Z 28004KT 11/01 A302 RMK A01 T01140014  RH  050%=      5-min Rain = 0
KPD4 091531Z 27003KT 11/01 A302 RMK A01 T01140013  RH  050%=      5-min Rain = 0
KPD4 091532Z 27004KT 11/02 A302 RMK A01 T01140015  RH  051%=      5-min Rain = 0
KPD4 091533Z 26003KT 12/02 A302 RMK A01 T01150015  RH  050%=      5-min Rain = 0
KPD4 091534Z 27004KT 12/01 A302 RMK A01 T01170013  RH  049%=      5-min Rain = 0
KPD4 091535Z 27004KT 12/01 A302 RMK A01 T01180013  RH  048%=      5-min Rain = 0
KPD4 091536Z 27004KT 12/02 A302 RMK A01 T01210019  RH  049%=      5-min Rain = 0
KPD4 091537Z 26004KT 12/01 A302 RMK A01 T01230012  RH  047%=      5-min Rain = 0
KPD4 091538Z 25004KT 13/01 A302 RMK A01 T01260008  RH  045%=      5-min Rain = 0
KPD4 091539Z 25004KT 13/01 A302 RMK A01 T01270006  RH  044%=      5-min Rain = 0
KPD4 091540Z 25004KT 13/01 A302 RMK A01 T01280008  RH  044%=      5-min Rain = 0
KPD4 091541Z 26003KT 13/01 A302 RMK A01 T01300007  RH  043%=      5-min Rain = 0
KPD4 091542Z 25003KT 13/01 A302 RMK A01 T01320009  RH  043%=      5-min Rain = 0
KPD4 091543Z 26003KT 13/01 A302 RMK A01 T01340006  RH  042%=      5-min Rain = 0
KPD4 091544Z 25003KT 14/01 A302 RMK A01 T01350007  RH  042%=      5-min Rain = 0
KPD4 091545Z 24003KT 14/M00 A302 RMK A01 T01351001  RH  039%=      5-min Rain = 0
KPD4 091546Z 25004KT 14/00 A302 RMK A01 T01360000  RH  039%=      5-min Rain = 0
KPD4 091547Z 26003KT 14/01 A302 RMK A01 T01370006  RH  041%=      5-min Rain = 0
KPD4 091548Z 23003KT 14/01 A302 RMK A01 T01390006  RH  040%=      5-min Rain = 0
KPD4 091549Z 24003KT 14/01 A302 RMK A01 T01420005  RH  039%=      5-min Rain = 0
KPD4 091550Z 24003KT 14/00 A302 RMK A01 T01440003  RH  038%=      5-min Rain = 0
KPD4 091551Z 26003KT 14/00 A302 RMK A01 T01440001  RH  037%=      5-min Rain = 0
KPD4 091552Z 27003KT 15/M00 A302 RMK A01 T01451002  RH  036%=      5-min Rain = 0
KPD4 091553Z 27003KT 15/M00 A3019 RMK A01 T01471001  RH  036%=      5-min Rain = 0
KPD4 091554Z 25003KT 15/M01 A3019 RMK A01 T01491005  RH  035%=      5-min Rain = 0
KPD4 091555Z 27003KT 15/M01 A3019 RMK A01 T01501009  RH  034%=      5-min Rain = 0
KPD4 091556Z 26003KT 15/M02 A3019 RMK A01 T01511019  RH  031%=      5-min Rain = 0
KPD4 091557Z 27002KT 15/M02 A3019 RMK A01 T01521023  RH  030%=      5-min Rain = 0
KPD4 091558Z 26003KT 15/M01 A302 RMK A01 T01511011  RH  033%=      5-min Rain = 0
KPD4 091559Z 26002KT 15/M01 A302 RMK A01 T01511013  RH  032%=      5-min Rain = 0
KPD4 091600Z 25003KT 15/M02 A302 RMK A01 T01521016  RH  032%=      5-min Rain = 0
KPD4 091601Z 25003KT 15/M02 A302 RMK A01 T01531018  RH  031%=      5-min Rain = 0
KPD4 091602Z 26003KT 16/M01 A3019 RMK A01 T01551014  RH  031%=      5-min Rain = 0
KPD4 091603Z 26003KT 16/M01 A3019 RMK A01 T01571014  RH  031%=      5-min Rain = 0
KPD4 091604Z 24003KT 16/M02 A3019 RMK A01 T01571019  RH  030%=      5-min Rain = 0
KPD4 091605Z 27004KT 16/M02 A3019 RMK A01 T01561023  RH  029%=      5-min Rain = 0
KPD4 091606Z 26004KT 16/M02 A3019 RMK A01 T01551024  RH  029%=      5-min Rain = 0
KPD4 091607Z 27004KT 16/M02 A3019 RMK A01 T01561023  RH  029%=      5-min Rain = 0
KPD4 091608Z 27004KT 16/M02 A3019 RMK A01 T01581021  RH  029%=      5-min Rain = 0
KPD4 091609Z 27003KT 16/M03 A3019 RMK A01 T01591026  RH  028%=      5-min Rain = 0
KPD4 091610Z 25002KT 16/M03 A3019 RMK A01 T01591025  RH  028%=      5-min Rain = 0
KPD4 091611Z 25003KT 16/M02 A3019 RMK A01 T01601020  RH  029%=      5-min Rain = 0
KPD4 091612Z 27003KT 16/M02 A3019 RMK A01 T01601020  RH  029%=      5-min Rain = 0
KPD4 091613Z 24003KT 16/M02 A3019 RMK A01 T01611018  RH  029%=      5-min Rain = 0
KPD4 091614Z 27003KT 16/M02 A3019 RMK A01 T01631020  RH  028%=      5-min Rain = 0
KPD4 091615Z 29003KT 16/M02 A3019 RMK A01 T01641024  RH  028%=      5-min Rain = 0
KPD4 091616Z 25003KT 16/M03 A3019 RMK A01 T01631025  RH  028%=      5-min Rain = 0
KPD4 091617Z 27002KT 16/M02 A3019 RMK A01 T01631022  RH  028%=      5-min Rain = 0
KPD4 091618Z 28003KT 16/M02 A3019 RMK A01 T01641021  RH  028%=      5-min Rain = 0
KPD4 091619Z 27003KT 16/M02 A3019 RMK A01 T01641023  RH  028%=      5-min Rain = 0
KPD4 091620Z 25003KT 16/M02 A3019 RMK A01 T01641021  RH  028%=      5-min Rain = 0
KPD4 091621Z 27003KT 17/M02 A3019 RMK A01 T01651021  RH  028%=      5-min Rain = 0
KPD4 091622Z 28002KT 17/M02 A3019 RMK A01 T01651023  RH  028%=      5-min Rain = 0
KPD4 091623Z 25001KT 17/M02 A3019 RMK A01 T01651020  RH  028%=      5-min Rain = 0
KPD4 091624Z 25003KT 17/M02 A3019 RMK A01 T01661023  RH  027%=      5-min Rain = 0
KPD4 091625Z 25002KT 17/M02 A3019 RMK A01 T01671023  RH  027%=      5-min Rain = 0
KPD4 091626Z 23002KT 17/M02 A3019 RMK A01 T01671021  RH  028%=      5-min Rain = 0
KPD4 091627Z 29003KT 17/M02 A3019 RMK A01 T01691021  RH  027%=      5-min Rain = 0
KPD4 091628Z 30001KT 17/M02 A3019 RMK A01 T01691023  RH  027%=      5-min Rain = 0
KPD4 091629Z 24002KT 17/M02 A3019 RMK A01 T01701021  RH  027%=      5-min Rain = 0
KPD4 091630Z 22003KT 17/M02 A3019 RMK A01 T01711023  RH  027%=      5-min Rain = 0
KPD4 091631Z 22002KT 17/M03 A3019 RMK A01 T01711025  RH  026%=      5-min Rain = 0
KPD4 091632Z 26002KT 17/M02 A3019 RMK A01 T01711022  RH  027%=      5-min Rain = 0
KPD4 091633Z 26002KT 17/M02 A3019 RMK A01 T01741020  RH  027%=      5-min Rain = 0
KPD4 091634Z 27001KT 18/M03 A3019 RMK A01 T01751025  RH  025%=      5-min Rain = 0
KPD4 091635Z 10001KT 17/M03 A3019 RMK A01 T01741026  RH  025%=      5-min Rain = 0
KPD4 091636Z 31002KT 18/M02 A3019 RMK A01 T01751023  RH  026%=      5-min Rain = 0
KPD4 091637Z 28003KT 18/M02 A3019 RMK A01 T01771017  RH  027%=      5-min Rain = 0
KPD4 091638Z 29003KT 18/M02 A3019 RMK A01 T01801019  RH  026%=      5-min Rain = 0
KPD4 091639Z 28002KT 18/M02 A3019 RMK A01 T01791023  RH  025%=      5-min Rain = 0
KPD4 091640Z 24001KT 18/M02 A3019 RMK A01 T01771022  RH  026%=      5-min Rain = 0
KPD4 091641Z 22002KT 18/M02 A3019 RMK A01 T01781022  RH  026%=      5-min Rain = 0
KPD4 091642Z 23001KT 18/M02 A3019 RMK A01 T01791023  RH  025%=      5-min Rain = 0
KPD4 091643Z 17001KT 18/M02 A3019 RMK A01 T01801023  RH  025%=      5-min Rain = 0
KPD4 091644Z 17002KT 18/M02 A3019 RMK A01 T01831022  RH  025%=      5-min Rain = 0
KPD4 091645Z 17001KT 19/M02 A3019 RMK A01 T01871022  RH  024%=      5-min Rain = 0
KPD4 091646Z 15002KT 19/M02 A3019 RMK A01 T01901023  RH  024%=      5-min Rain = 0
KPD4 091647Z 18001KT 19/M02 A3019 RMK A01 T01911024  RH  023%=      5-min Rain = 0
KPD4 091648Z 25002KT 19/M03 A3019 RMK A01 T01911026  RH  023%=      5-min Rain = 0
KPD4 091649Z 23002KT 19/M02 A3019 RMK A01 T01911024  RH  023%=      5-min Rain = 0
KPD4 091650Z 20001KT 19/M02 A3019 RMK A01 T01921024  RH  023%=      5-min Rain = 0
KPD4 091651Z 18002KT 19/M02 A3019 RMK A01 T01931022  RH  023%=      5-min Rain = 0
KPD4 091652Z 17002KT 19/M03 A3019 RMK A01 T01941029  RH  022%=      5-min Rain = 0
KPD4 091653Z 18003KT 19/M03 A3019 RMK A01 T01941031  RH  022%=      5-min Rain = 0
KPD4 091654Z 19003KT 19/M03 A3019 RMK A01 T01941029  RH  022%=      5-min Rain = 0
KPD4 091655Z 19003KT 19/M03 A3018 RMK A01 T01931030  RH  022%=      5-min Rain = 0
KPD4 091656Z 19003KT 19/M03 A3018 RMK A01 T01911031  RH  022%=      5-min Rain = 0
KPD4 091657Z 16003KT 19/M03 A3018 RMK A01 T01911030  RH  022%=      5-min Rain = 0
KPD4 091658Z 17003KT 19/M03 A3018 RMK A01 T01921027  RH  023%=      5-min Rain = 0
KPD4 091659Z 17004KT 19/M03 A3018 RMK A01 T01931028  RH  022%=      5-min Rain = 0
KPD4 091700Z 17003KT 19/M02 A3018 RMK A01 T01941023  RH  023%=      5-min Rain = 0
KPD4 091701Z 19003KT 20/M02 A3018 RMK A01 T01951023  RH  023%=      5-min Rain = 0
KPD4 091702Z 16002KT 20/M01 A3018 RMK A01 T01961014  RH  024%=      5-min Rain = 0
KPD4 091703Z 19003KT 20/M01 A3018 RMK A01 T01991014  RH  024%=      5-min Rain = 0
KPD4 091704Z 21005KT 20/M02 A3018 RMK A01 T02001020  RH  023%=      5-min Rain = 0
KPD4 091705Z 20004KT 20/M02 A3018 RMK A01 T02011019  RH  023%=      5-min Rain = 0
KPD4 091706Z 17004KT 20/M02 A3018 RMK A01 T02011017  RH  023%=      5-min Rain = 0
KPD4 091707Z 20005KT 20/M02 A3018 RMK A01 T02011017  RH  023%=      5-min Rain = 0
KPD4 091708Z 23005KT 20/M02 A3018 RMK A01 T02021015  RH  023%=      5-min Rain = 0
KPD4 091709Z 20005KT 20/M01 A3018 RMK A01 T02031012  RH  023%=      5-min Rain = 0
KPD4 091710Z 21006KT 20/M01 A3018 RMK A01 T02041013  RH  023%=      5-min Rain = 0
KPD4 091711Z 20006KT 21/M02 A3018 RMK A01 T02051015  RH  023%=      5-min Rain = 0
KPD4 091712Z 21004KT 21/M02 A3018 RMK A01 T02051020  RH  022%=      5-min Rain = 0
KPD4 091713Z 20005KT 20/M02 A3018 RMK A01 T02041018  RH  022%=      5-min Rain = 0
KPD4 091714Z 22005KT 20/M02 A3018 RMK A01 T02041020  RH  022%=      5-min Rain = 0
KPD4 091715Z 23004KT 21/M02 A3018 RMK A01 T02061016  RH  022%=      5-min Rain = 0
KPD4 091716Z 19003KT 21/M02 A3017 RMK A01 T02061019  RH  022%=      5-min Rain = 0
KPD4 091717Z 17005KT 21/M02 A3017 RMK A01 T02061023  RH  021%=      5-min Rain = 0
KPD4 091718Z 18005KT 21/M02 A3017 RMK A01 T02051023  RH  021%=      5-min Rain = 0
KPD4 091719Z 17005KT 21/M02 A3017 RMK A01 T02061023  RH  021%=      5-min Rain = 0
KPD4 091720Z 18004KT 21/M03 A3017 RMK A01 T02071025  RH  021%=      5-min Rain = 0
KPD4 091721Z 17006KT 21/M02 A3017 RMK A01 T02071023  RH  021%=      5-min Rain = 0
KPD4 091722Z 17006KT 21/M03 A3017 RMK A01 T02081025  RH  021%=      5-min Rain = 0
KPD4 091723Z 18005KT 21/M03 A3017 RMK A01 T02091031  RH  020%=      5-min Rain = 0
KPD4 091724Z 18005KT 21/M03 A3017 RMK A01 T02081026  RH  020%=      5-min Rain = 0
KPD4 091725Z 17004KT 21/M03 A3017 RMK A01 T02091025  RH  021%=      5-min Rain = 0
KPD4 091726Z 18007KT 21/M02 A3017 RMK A01 T02101022  RH  021%=      5-min Rain = 0
KPD4 091727Z 18006KT 21/M02 A3017 RMK A01 T02111023  RH  021%=      5-min Rain = 0
KPD4 091728Z 16006KT 21/M03 A3017 RMK A01 T02121026  RH  020%=      5-min Rain = 0
KPD4 091729Z 18005KT 21/M03 A3017 RMK A01 T02121025  RH  020%=      5-min Rain = 0
KPD4 091730Z 19004KT 21/M03 A3017 RMK A01 T02131027  RH  020%=      5-min Rain = 0
KPD4 091731Z 18007KT 21/M03 A3017 RMK A01 T02141027  RH  020%=      5-min Rain = 0
KPD4 091732Z 18007KT 22/M03 A3017 RMK A01 T02151025  RH  020%=      5-min Rain = 0
KPD4 091733Z 18006KT 22/M03 A3017 RMK A01 T02151026  RH  020%=      5-min Rain = 0
KPD4 091734Z 17004KT 21/M03 A3017 RMK A01 T02141027  RH  020%=      5-min Rain = 0
KPD4 091735Z 16006KT 21/M03 A3017 RMK A01 T02131026  RH  020%=      5-min Rain = 0
KPD4 091736Z 16006KT 21/M03 A3017 RMK A01 T02131028  RH  020%=      5-min Rain = 0
KPD4 091737Z 18006KT 21/M03 A3017 RMK A01 T02141028  RH  020%=      5-min Rain = 0
KPD4 091738Z 20007KT 22/M03 A3017 RMK A01 T02151027  RH  020%=      5-min Rain = 0
KPD4 091739Z 20006KT 22/M03 A3017 RMK A01 T02161025  RH  020%=      5-min Rain = 0
KPD4 091740Z 19007KT 22/M03 A3017 RMK A01 T02161026  RH  020%=      5-min Rain = 0
KPD4 091741Z 20005KT 22/M03 A3016 RMK A01 T02171025  RH  020%=      5-min Rain = 0
KPD4 091742Z 19006KT 22/M02 A3016 RMK A01 T02171024  RH  020%=      5-min Rain = 0
KPD4 091743Z 19008KT 22/M02 A3016 RMK A01 T02191022  RH  020%=      5-min Rain = 0
KPD4 091744Z 20007KT 22/M02 A3016 RMK A01 T02191024  RH  020%=      5-min Rain = 0
KPD4 091745Z 21004KT 22/M02 A3016 RMK A01 T02201024  RH  019%=      5-min Rain = 0
KPD4 091746Z 20007KT 22/M02 A3016 RMK A01 T02211023  RH  019%=      5-min Rain = 0
KPD4 091747Z 20007KT 22/M02 A3016 RMK A01 T02221024  RH  019%=      5-min Rain = 0
KPD4 091748Z 21005KT 22/M03 A3016 RMK A01 T02201026  RH  019%=      5-min Rain = 0
KPD4 091749Z 20006KT 22/M02 A3016 RMK A01 T02191024  RH  019%=      5-min Rain = 0
KPD4 091750Z 18006KT 22/M02 A3016 RMK A01 T02191024  RH  019%=      5-min Rain = 0
KPD4 091751Z 20009KT 22/M02 A3016 RMK A01 T02221021  RH  019%=      5-min Rain = 0
KPD4 091752Z 21007KT 22/M02 A3016 RMK A01 T02241024  RH  019%=      5-min Rain = 0
KPD4 091753Z 21006KT 22/M02 A3016 RMK A01 T02211024  RH  019%=      5-min Rain = 0
KPD4 091754Z 20006KT 22/M02 A3016 RMK A01 T02221022  RH  019%=      5-min Rain = 0
KPD4 091755Z 20004KT 23/M02 A3016 RMK A01 T02251024  RH  019%=      5-min Rain = 0
KPD4 091756Z 20006KT 23/M02 A3016 RMK A01 T02251024  RH  019%=      5-min Rain = 0
KPD4 091757Z 23006KT 22/M03 A3016 RMK A01 T02241026  RH  019%=      5-min Rain = 0
KPD4 091758Z 19007KT 23/M03 A3015 RMK A01 T02251026  RH  019%=      5-min Rain = 0
KPD4 091759Z 19007KT 23/M03 A3015 RMK A01 T02261027  RH  018%=      5-min Rain = 0
KPD4 091800Z 20007KT 22/M03 A3015 RMK A01 T02241027  RH  019%=      5-min Rain = 0
KPD4 091801Z 20008KT 23/M02 A3015 RMK A01 T02261023  RH  019%=      5-min Rain = 0
KPD4 091802Z 20009KT 23/M02 A3015 RMK A01 T02271024  RH  019%=      5-min Rain = 0
KPD4 091803Z 22009KT 23/M02 A3015 RMK A01 T02281023  RH  019%=      5-min Rain = 0
KPD4 091804Z 23006KT 23/M02 A3015 RMK A01 T02291024  RH  018%=      5-min Rain = 0
KPD4 091805Z 21005KT 23/M02 A3015 RMK A01 T02271023  RH  019%=      5-min Rain = 0
KPD4 091806Z 18006KT 23/M02 A3015 RMK A01 T02321019  RH  019%=      5-min Rain = 0
KPD4 091807Z 21008KT 24/M02 A3015 RMK A01 T02371018  RH  018%=      5-min Rain = 0
KPD4 091808Z 20008KT 24/M02 A3015 RMK A01 T02371021  RH  018%=      5-min Rain = 0
KPD4 091809Z 19007KT 23/M02 A3015 RMK A01 T02331023  RH  018%=      5-min Rain = 0
KPD4 091810Z 19006KT 23/M02 A3015 RMK A01 T02301022  RH  019%=      5-min Rain = 0
KPD4 091811Z 19007KT 23/M02 A3015 RMK A01 T02311021  RH  019%=      5-min Rain = 0
KPD4 091812Z 21006KT 23/M02 A3015 RMK A01 T02311022  RH  018%=      5-min Rain = 0
KPD4 091813Z 19006KT 23/M02 A3014 RMK A01 T02311020  RH  019%=      5-min Rain = 0
KPD4 091814Z 19008KT 23/M02 A3014 RMK A01 T02341018  RH  019%=      5-min Rain = 0
KPD4 091815Z 21007KT 24/M02 A3014 RMK A01 T02361018  RH  018%=      5-min Rain = 0
KPD4 091816Z 22009KT 24/M02 A3014 RMK A01 T02381018  RH  018%=      5-min Rain = 0
KPD4 091817Z 22005KT 24/M02 A3014 RMK A01 T02361023  RH  018%=      5-min Rain = 0
KPD4 091818Z 19007KT 23/M02 A3014 RMK A01 T02321022  RH  018%=      5-min Rain = 0
KPD4 091819Z 18007KT 24/M02 A3014 RMK A01 T02351020  RH  018%=      5-min Rain = 0
KPD4 091820Z 20008KT 24/M02 A3014 RMK A01 T02351023  RH  018%=      5-min Rain = 0
KPD4 091821Z 20006G11KT 23/M02 A3014 RMK A01 T02341023  RH  018%=      5-min Rain = 0
KPD4 091822Z 20009KT 24/M02 A3014 RMK A01 T02361022  RH  018%=      5-min Rain = 0
KPD4 091823Z 20009KT 24/M02 A3014 RMK A01 T02371024  RH  018%=      5-min Rain = 0
KPD4 091824Z 21007KT 24/M02 A3014 RMK A01 T02391024  RH  017%=      5-min Rain = 0
KPD4 091825Z 20007KT 24/M02 A3013 RMK A01 T02391023  RH  017%=      5-min Rain = 0
KPD4 091826Z 20009KT 24/M03 A3013 RMK A01 T02361025  RH  017%=      5-min Rain = 0
KPD4 091827Z 20012KT 24/M03 A3013 RMK A01 T02351026  RH  017%=      5-min Rain = 0
KPD4 091828Z 21010KT 24/M03 A3013 RMK A01 T02361026  RH  017%=      5-min Rain = 0
KPD4 091829Z 21008KT 24/M03 A3013 RMK A01 T02371025  RH  017%=      5-min Rain = 0
KPD4 091830Z 22008KT 24/M02 A3013 RMK A01 T02371023  RH  018%=      5-min Rain = 0
KPD4 091831Z 22009KT 24/M02 A3013 RMK A01 T02401022  RH  018%=      5-min Rain = 0
KPD4 091832Z 19006KT 24/M02 A3013 RMK A01 T02421021  RH  017%=      5-min Rain = 0
KPD4 091833Z 20010KT 24/M02 A3013 RMK A01 T02441020  RH  017%=      5-min Rain = 0
KPD4 091834Z 21008KT 24/M02 A3013 RMK A01 T02431021  RH  017%=      5-min Rain = 0
KPD4 091835Z 23009KT 24/M02 A3013 RMK A01 T02421024  RH  017%=      5-min Rain = 0
KPD4 091836Z 22008KT 24/M02 A3013 RMK A01 T02421024  RH  017%=      5-min Rain = 0
KPD4 091837Z 19007KT 24/M02 A3013 RMK A01 T02421024  RH  017%=      5-min Rain = 0
KPD4 091838Z 21012KT 24/M03 A3012 RMK A01 T02401025  RH  017%=      5-min Rain = 0
KPD4 091839Z 21008KT 24/M03 A3012 RMK A01 T02411025  RH  017%=      5-min Rain = 0
KPD4 091840Z 23007KT 24/M03 A3012 RMK A01 T02411025  RH  017%=      5-min Rain = 0
KPD4 091841Z 22009KT 24/M02 A3012 RMK A01 T02421023  RH  017%=      5-min Rain = 0
KPD4 091842Z 22010KT 25/M02 A3012 RMK A01 T02461023  RH  017%=      5-min Rain = 0
KPD4 091843Z 23009KT 25/M03 A3012 RMK A01 T02471025  RH  016%=      5-min Rain = 0
KPD4 091844Z 20010KT 25/M02 A3012 RMK A01 T02461024  RH  017%=      5-min Rain = 0
KPD4 091845Z 19009KT 24/M02 A3012 RMK A01 T02441022  RH  017%=      5-min Rain = 0
KPD4 091846Z 20010KT 25/M02 A3012 RMK A01 T02461018  RH  017%=      5-min Rain = 0
KPD4 091847Z 19008KT 25/M02 A3012 RMK A01 T02471018  RH  017%=      5-min Rain = 0
KPD4 091848Z 20008KT 25/M02 A3012 RMK A01 T02481017  RH  017%=      5-min Rain = 0
KPD4 091849Z 20009KT 25/M01 A3012 RMK A01 T02521013  RH  017%=      5-min Rain = 0
KPD4 091850Z 22011KT 26/M02 A3012 RMK A01 T02551017  RH  017%=      5-min Rain = 0
KPD4 091851Z 20010KT 26/M02 A3012 RMK A01 T02551018  RH  016%=      5-min Rain = 0
KPD4 091852Z 21010KT 25/M02 A3011 RMK A01 T02531020  RH  016%=      5-min Rain = 0
KPD4 091853Z 22012KT 25/M03 A3011 RMK A01 T02491027  RH  016%=      5-min Rain = 0
KPD4 091854Z 21013KT 25/M03 A3011 RMK A01 T02501028  RH  016%=      5-min Rain = 0
KPD4 091855Z 22013KT 25/M04 A3011 RMK A01 T02501036  RH  015%=      5-min Rain = 0
KPD4 091856Z 22013KT 25/M04 A3011 RMK A01 T02481036  RH  015%=      5-min Rain = 0
KPD4 091857Z 23013KT 25/M04 A3011 RMK A01 T02471036  RH  015%=      5-min Rain = 0
KPD4 091858Z 23010KT 25/M03 A3011 RMK A01 T02471034  RH  015%=      5-min Rain = 0
KPD4 091859Z 21010KT 25/M03 A3011 RMK A01 T02471031  RH  016%=      5-min Rain = 0
KPD4 091900Z 21010KT 25/M03 A3011 RMK A01 T02481030  RH  016%=      5-min Rain = 0
KPD4 091901Z 21012KT 25/M03 A3011 RMK A01 T02471025  RH  016%=      5-min Rain = 0
KPD4 091902Z 24011KT 25/M02 A3011 RMK A01 T02481024  RH  016%=      5-min Rain = 0
KPD4 091903Z 22012KT 25/M02 A3011 RMK A01 T02481023  RH  016%=      5-min Rain = 0
KPD4 091904Z 21011KT 25/M02 A3011 RMK A01 T02511022  RH  016%=      5-min Rain = 0
KPD4 091905Z 21009KT 25/M02 A3011 RMK A01 T02511022  RH  016%=      5-min Rain = 0
KPD4 091906Z 19012KT 25/M03 A301 RMK A01 T02511027  RH  016%=      5-min Rain = 0
KPD4 091907Z 21014KT 25/M04 A301 RMK A01 T02511036  RH  015%=      5-min Rain = 0
KPD4 091908Z 22013KT 26/M03 A301 RMK A01 T02561034  RH  015%=      5-min Rain = 0
KPD4 091909Z 23014KT 26/M04 A301 RMK A01 T02561040  RH  014%=      5-min Rain = 0
KPD4 091910Z 23013KT 25/M05 A301 RMK A01 T02511054  RH  013%=      5-min Rain = 0
KPD4 091911Z 23013KT 25/M05 A301 RMK A01 T02501047  RH  014%=      5-min Rain = 0
KPD4 091912Z 23013KT 25/M04 A301 RMK A01 T02541043  RH  014%=      5-min Rain = 0
KPD4 091913Z 23013KT 25/M04 A301 RMK A01 T02541044  RH  014%=      5-min Rain = 0
KPD4 091914Z 24012KT 25/M05 A301 RMK A01 T02531050  RH  013%=      5-min Rain = 0
KPD4 091915Z 23014KT 25/M05 A301 RMK A01 T02541045  RH  013%=      5-min Rain = 0
KPD4 091916Z 23013G19KT 26/M05 A301 RMK A01 T02551045  RH  013%=      5-min Rain = 0
KPD4 091917Z 21014KT 26/M04 A301 RMK A01 T02551044  RH  014%=      5-min Rain = 0
KPD4 091918Z 22012KT 26/M04 A301 RMK A01 T02551040  RH  014%=      5-min Rain = 0
KPD4 091919Z 22012KT 25/M04 A301 RMK A01 T02541038  RH  014%=      5-min Rain = 0
KPD4 091920Z 20014G19KT 25/M04 A301 RMK A01 T02531037  RH  014%=      5-min Rain = 0
KPD4 091921Z 20018KT 25/M04 A301 RMK A01 T02541042  RH  014%=      5-min Rain = 0
KPD4 091922Z 21014KT 25/M04 A301 RMK A01 T02511043  RH  014%=      5-min Rain = 0
KPD4 091923Z 22013KT 25/M04 A3009 RMK A01 T02501040  RH  014%=      5-min Rain = 0
KPD4 091924Z 21011KT 25/M04 A3009 RMK A01 T02501041  RH  014%=      5-min Rain = 0
KPD4 091925Z 21010KT 25/M04 A3009 RMK A01 T02511040  RH  014%=      5-min Rain = 0
KPD4 091926Z 22017KT 25/M04 A3009 RMK A01 T02511041  RH  014%=      5-min Rain = 0
KPD4 091927Z 21014KT 25/M05 A3009 RMK A01 T02511045  RH  014%=      5-min Rain = 0
KPD4 091928Z 22015KT 25/M05 A3009 RMK A01 T02521051  RH  013%=      5-min Rain = 0
KPD4 091929Z 22013KT 25/M05 A3009 RMK A01 T02521052  RH  013%=      5-min Rain = 0
KPD4 091930Z 23012KT 25/M05 A3009 RMK A01 T02531051  RH  013%=      5-min Rain = 0
KPD4 091931Z 22015KT 26/M04 A3009 RMK A01 T02551043  RH  014%=      5-min Rain = 0
KPD4 091932Z 21014KT 26/M04 A3009 RMK A01 T02551035  RH  014%=      5-min Rain = 0
KPD4 091933Z 20011KT 25/M03 A3009 RMK A01 T02541033  RH  015%=      5-min Rain = 0
KPD4 091934Z 20010KT 26/M04 A3009 RMK A01 T02561035  RH  014%=      5-min Rain = 0
KPD4 091935Z 21012KT 26/M04 A3009 RMK A01 T02561035  RH  014%=      5-min Rain = 0
KPD4 091936Z 22013KT 26/M03 A3009 RMK A01 T02571033  RH  014%=      5-min Rain = 0
KPD4 091937Z 21012KT 26/M03 A3009 RMK A01 T02581031  RH  015%=      5-min Rain = 0
KPD4 091938Z 20011G16KT 26/M03 A3008 RMK A01 T02571028  RH  015%=      5-min Rain = 0
KPD4 091939Z 20012KT 26/M03 A3008 RMK A01 T02611032  RH  014%=      5-min Rain = 0
KPD4 091940Z 21017KT 26/M03 A3008 RMK A01 T02591034  RH  014%=      5-min Rain = 0
KPD4 091941Z 21018KT 26/M04 A3008 RMK A01 T02581041  RH  014%=      5-min Rain = 0
KPD4 091942Z 22016KT 26/M04 A3008 RMK A01 T02551040  RH  014%=      5-min Rain = 0
KPD4 091943Z 21012KT 25/M04 A3008 RMK A01 T02541039  RH  014%=      5-min Rain = 0
KPD4 091944Z 21009KT 25/M04 A3008 RMK A01 T02521041  RH  014%=      5-min Rain = 0
KPD4 091945Z 22012KT 25/M04 A3008 RMK A01 T02521038  RH  014%=      5-min Rain = 0
KPD4 091946Z 21011KT 26/M04 A3008 RMK A01 T02551041  RH  014%=      5-min Rain = 0
KPD4 091947Z 20012KT 26/M04 A3008 RMK A01 T02561044  RH  013%=      5-min Rain = 0
KPD4 091948Z 20010KT 26/M05 A3008 RMK A01 T02571046  RH  013%=      5-min Rain = 0
KPD4 091949Z 20012KT 26/M05 A3008 RMK A01 T02601046  RH  013%=      5-min Rain = 0
KPD4 091950Z 23014KT 26/M04 A3008 RMK A01 T02611044  RH  013%=      5-min Rain = 0
KPD4 091951Z 23014KT 26/M05 A3008 RMK A01 T02591047  RH  013%=      5-min Rain = 0
KPD4 091952Z 21013G18KT 26/M05 A3008 RMK A01 T02551047  RH  013%=      5-min Rain = 0
KPD4 091953Z 21017KT 26/M05 A3008 RMK A01 T02551047  RH  013%=      5-min Rain = 0
KPD4 091954Z 20013KT 26/M05 A3008 RMK A01 T02551050  RH  013%=      5-min Rain = 0
KPD4 091955Z 21013G18KT 26/M05 A3008 RMK A01 T02551050  RH  013%=      5-min Rain = 0
KPD4 091956Z 23015KT 26/M05 A3008 RMK A01 T02571050  RH  013%=      5-min Rain = 0
KPD4 091957Z 22015KT 26/M05 A3008 RMK A01 T02571047  RH  013%=      5-min Rain = 0
KPD4 091958Z 22014KT 26/M05 A3008 RMK A01 T02561048  RH  013%=      5-min Rain = 0
KPD4 091959Z 22014KT 25/M05 A3008 RMK A01 T02541048  RH  013%=      5-min Rain = 0
KPD4 092000Z 21014KT 26/M04 A3008 RMK A01 T02561043  RH  014%=      5-min Rain = 0
KPD4 092001Z 22010KT 25/M05 A3007 RMK A01 T02541045  RH  013%=      5-min Rain = 0
KPD4 092002Z 21012KT 25/M04 A3007 RMK A01 T02531043  RH  014%=      5-min Rain = 0
KPD4 092003Z 20016KT 25/M05 A3007 RMK A01 T02541045  RH  013%=      5-min Rain = 0
KPD4 092004Z 21014KT 26/M05 A3007 RMK A01 T02551046  RH  013%=      5-min Rain = 0
KPD4 092005Z 20015KT 26/M04 A3007 RMK A01 T02581044  RH  013%=      5-min Rain = 0
KPD4 092006Z 21014KT 26/M05 A3007 RMK A01 T02601046  RH  013%=      5-min Rain = 0
KPD4 092007Z 21012KT 26/M05 A3007 RMK A01 T02581047  RH  013%=      5-min Rain = 0
KPD4 092008Z 20012G17KT 26/M05 A3007 RMK A01 T02581045  RH  013%=      5-min Rain = 0
KPD4 092009Z 19012KT 26/M04 A3007 RMK A01 T02611043  RH  013%=      5-min Rain = 0
KPD4 092010Z 20015KT 26/M05 A3007 RMK A01 T02621045  RH  013%=      5-min Rain = 0
KPD4 092011Z 22014KT 26/M05 A3007 RMK A01 T02601046  RH  013%=      5-min Rain = 0
KPD4 092012Z 20016KT 26/M05 A3007 RMK A01 T02591047  RH  013%=      5-min Rain = 0
KPD4 092013Z 22013G18KT 26/M05 A3007 RMK A01 T02581048  RH  013%=      5-min Rain = 0
KPD4 092014Z 21012KT 26/M05 A3007 RMK A01 T02571047  RH  013%=      5-min Rain = 0
KPD4 092015Z 19014KT 26/M05 A3007 RMK A01 T02581047  RH  013%=      5-min Rain = 0
KPD4 092016Z 20015KT 26/M05 A3007 RMK A01 T02591048  RH  013%=      5-min Rain = 0
KPD4 092017Z 20016KT 26/M05 A3007 RMK A01 T02591049  RH  013%=      5-min Rain = 0
KPD4 092018Z 21015KT 26/M05 A3007 RMK A01 T02581050  RH  013%=      5-min Rain = 0
KPD4 092019Z 20016KT 26/M05 A3007 RMK A01 T02581052  RH  013%=      5-min Rain = 0
KPD4 092020Z 20013KT 26/M05 A3007 RMK A01 T02571052  RH  013%=      5-min Rain = 0
KPD4 092021Z 20012KT 26/M05 A3007 RMK A01 T02561051  RH  013%=      5-min Rain = 0
KPD4 092022Z 20011KT 26/M05 A3007 RMK A01 T02561051  RH  013%=      5-min Rain = 0
KPD4 092023Z 20011KT 26/M05 A3007 RMK A01 T02561048  RH  013%=      5-min Rain = 0
KPD4 092024Z 20013KT 26/M05 A3007 RMK A01 T02561046  RH  013%=      5-min Rain = 0
KPD4 092025Z 21011KT 26/M04 A3007 RMK A01 T02561044  RH  013%=      5-min Rain = 0
KPD4 092026Z 22012G17KT 26/M04 A3007 RMK A01 T02591044  RH  013%=      5-min Rain = 0
KPD4 092027Z 21015KT 26/M05 A3007 RMK A01 T02611045  RH  013%=      5-min Rain = 0
KPD4 092028Z 21012KT 26/M05 A3007 RMK A01 T02591048  RH  013%=      5-min Rain = 0
KPD4 092029Z 20014KT 26/M05 A3007 RMK A01 T02571046  RH  013%=      5-min Rain = 0
KPD4 092030Z 20015KT 26/M05 A3006 RMK A01 T02571048  RH  013%=      5-min Rain = 0
KPD4 092031Z 20015KT 26/M05 A3006 RMK A01 T02561050  RH  013%=      5-min Rain = 0
KPD4 092032Z 22012KT 26/M05 A3006 RMK A01 T02571050  RH  013%=      5-min Rain = 0
KPD4 092033Z 20009KT 26/M05 A3006 RMK A01 T02571053  RH  013%=      5-min Rain = 0
KPD4 092034Z 21015G20KT 26/M05 A3006 RMK A01 T02571051  RH  013%=      5-min Rain = 0
KPD4 092035Z 21014G19KT 26/M05 A3006 RMK A01 T02571053  RH  012%=      5-min Rain = 0
KPD4 092036Z 20017KT 26/M05 A3006 RMK A01 T02571052  RH  013%=      5-min Rain = 0
KPD4 092037Z 20016KT 26/M05 A3006 RMK A01 T02581054  RH  012%=      5-min Rain = 0
KPD4 092038Z 21015KT 26/M06 A3006 RMK A01 T02571056  RH  012%=      5-min Rain = 0
KPD4 092039Z 21014G19KT 26/M06 A3006 RMK A01 T02561056  RH  012%=      5-min Rain = 0
KPD4 092040Z 22014KT 26/M06 A3006 RMK A01 T02571057  RH  012%=      5-min Rain = 0
KPD4 092041Z 23011KT 26/M06 A3006 RMK A01 T02551056  RH  012%=      5-min Rain = 0
KPD4 092042Z 21012KT 26/M05 A3006 RMK A01 T02561053  RH  013%=      5-min Rain = 0
KPD4 092043Z 20014G19KT 26/M05 A3006 RMK A01 T02591052  RH  012%=      5-min Rain = 0
KPD4 092044Z 20015KT 26/M05 A3006 RMK A01 T02601053  RH  012%=      5-min Rain = 0
KPD4 092045Z 20013KT 26/M06 A3006 RMK A01 T02591056  RH  012%=      5-min Rain = 0
KPD4 092046Z 19014KT 26/M06 A3006 RMK A01 T02581058  RH  012%=      5-min Rain = 0
KPD4 092047Z 19014KT 26/M06 A3006 RMK A01 T02571060  RH  012%=      5-min Rain = 0
KPD4 092048Z 20015KT 26/M06 A3006 RMK A01 T02571058  RH  012%=      5-min Rain = 0
KPD4 092049Z 21014KT 26/M06 A3006 RMK A01 T02581055  RH  012%=      5-min Rain = 0
KPD4 092050Z 19013KT 26/M06 A3006 RMK A01 T02581056  RH  012%=      5-min Rain = 0
KPD4 092051Z 21014KT 26/M06 A3005 RMK A01 T02581057  RH  012%=      5-min Rain = 0
KPD4 092052Z 21014KT 26/M06 A3005 RMK A01 T02581057  RH  012%=      5-min Rain = 0
KPD4 092053Z 21013KT 26/M06 A3005 RMK A01 T02571057  RH  012%=      5-min Rain = 0
KPD4 092054Z 20013KT 26/M06 A3005 RMK A01 T02571057  RH  012%=      5-min Rain = 0
KPD4 092055Z 21013KT 26/M06 A3005 RMK A01 T02591056  RH  012%=      5-min Rain = 0
KPD4 092056Z 21015G20KT 26/M05 A3005 RMK A01 T02601054  RH  012%=      5-min Rain = 0
KPD4 092057Z 20013G18KT 26/M05 A3005 RMK A01 T02601053  RH  012%=      5-min Rain = 0
KPD4 092058Z 20011KT 26/M05 A3005 RMK A01 T02591053  RH  012%=      5-min Rain = 0
KPD4 092059Z 20013KT 26/M05 A3005 RMK A01 T02601052  RH  012%=      5-min Rain = 0
KPD4 092100Z 20013KT 26/M06 A3005 RMK A01 T02581055  RH  012%=      5-min Rain = 0
KPD4 092101Z 20014KT 26/M06 A3005 RMK A01 T02571057  RH  012%=      5-min Rain = 0
KPD4 092102Z 20015KT 26/M06 A3005 RMK A01 T02561057  RH  012%=      5-min Rain = 0
KPD4 092103Z 20015KT 26/M06 A3005 RMK A01 T02551056  RH  012%=      5-min Rain = 0
KPD4 092104Z 20014KT 26/M05 A3005 RMK A01 T02551053  RH  013%=      5-min Rain = 0
KPD4 092105Z 21015KT 26/M05 A3005 RMK A01 T02551050  RH  013%=      5-min Rain = 0
KPD4 092106Z 21015KT 26/M05 A3005 RMK A01 T02551047  RH  013%=      5-min Rain = 0
KPD4 092107Z 21016KT 26/M04 A3005 RMK A01 T02561044  RH  013%=      5-min Rain = 0
KPD4 092108Z 21013KT 26/M04 A3005 RMK A01 T02561042  RH  014%=      5-min Rain = 0
KPD4 092109Z 20012KT 26/M04 A3005 RMK A01 T02561042  RH  014%=      5-min Rain = 0
KPD4 092110Z 21011KT 26/M04 A3005 RMK A01 T02551042  RH  014%=      5-min Rain = 0
KPD4 092111Z 20011KT 26/M04 A3005 RMK A01 T02561042  RH  014%=      5-min Rain = 0
KPD4 092112Z 19014KT 26/M04 A3005 RMK A01 T02581043  RH  013%=      5-min Rain = 0
KPD4 092113Z 19015KT 26/M05 A3005 RMK A01 T02591045  RH  013%=      5-min Rain = 0
KPD4 092114Z 20015KT 26/M05 A3005 RMK A01 T02571045  RH  013%=      5-min Rain = 0
KPD4 092115Z 21013KT 26/M04 A3005 RMK A01 T02571042  RH  014%=      5-min Rain = 0
KPD4 092116Z 21013KT 26/M04 A3005 RMK A01 T02571042  RH  014%=      5-min Rain = 0
KPD4 092117Z 21011KT 26/M04 A3005 RMK A01 T02551041  RH  014%=      5-min Rain = 0
KPD4 092118Z 21014G19KT 26/M04 A3005 RMK A01 T02551039  RH  014%=      5-min Rain = 0
KPD4 092119Z 21017KT 26/M04 A3005 RMK A01 T02561038  RH  014%=      5-min Rain = 0
KPD4 092120Z 21017KT 25/M04 A3005 RMK A01 T02541038  RH  014%=      5-min Rain = 0
KPD4 092121Z 21015KT 25/M04 A3005 RMK A01 T02521038  RH  014%=      5-min Rain = 0
KPD4 092122Z 21015KT 25/M04 A3005 RMK A01 T02521037  RH  015%=      5-min Rain = 0
KPD4 092123Z 22015KT 25/M04 A3005 RMK A01 T02521036  RH  015%=      5-min Rain = 0
KPD4 092124Z 22015KT 25/M04 A3005 RMK A01 T02531036  RH  015%=      5-min Rain = 0
KPD4 092125Z 22014KT 25/M04 A3005 RMK A01 T02541037  RH  014%=      5-min Rain = 0
KPD4 092126Z 21011KT 25/M04 A3005 RMK A01 T02541036  RH  014%=      5-min Rain = 0
KPD4 092127Z 21012KT 26/M03 A3005 RMK A01 T02571033  RH  014%=      5-min Rain = 0
KPD4 092128Z 22017KT 26/M03 A3004 RMK A01 T02591034  RH  014%=      5-min Rain = 0
KPD4 092129Z 22013KT 26/M04 A3004 RMK A01 T02571036  RH  014%=      5-min Rain = 0
KPD4 092130Z 22015KT 26/M04 A3004 RMK A01 T02561037  RH  014%=      5-min Rain = 0
KPD4 092131Z 21016KT 26/M04 A3004 RMK A01 T02561041  RH  014%=      5-min Rain = 0
KPD4 092132Z 21013KT 26/M05 A3004 RMK A01 T02551046  RH  013%=      5-min Rain = 0
KPD4 092133Z 22013KT 25/M04 A3004 RMK A01 T02531044  RH  014%=      5-min Rain = 0
KPD4 092134Z 22014KT 25/M04 A3004 RMK A01 T02541040  RH  014%=      5-min Rain = 0
KPD4 092135Z 21013KT 25/M04 A3004 RMK A01 T02541035  RH  015%=      5-min Rain = 0
KPD4 092136Z 21010KT 25/M03 A3005 RMK A01 T02531034  RH  015%=      5-min Rain = 0
KPD4 092137Z 22010KT 25/M03 A3005 RMK A01 T02541034  RH  015%=      5-min Rain = 0
KPD4 092138Z 22010KT 26/M04 A3005 RMK A01 T02561038  RH  014%=      5-min Rain = 0
KPD4 092139Z 21012KT 26/M04 A3004 RMK A01 T02571040  RH  014%=      5-min Rain = 0
KPD4 092140Z 21014KT 26/M04 A3004 RMK A01 T02571042  RH  014%=      5-min Rain = 0
KPD4 092141Z 20015KT 26/M04 A3004 RMK A01 T02561043  RH  014%=      5-min Rain = 0
KPD4 092142Z 20015KT 25/M04 A3005 RMK A01 T02531043  RH  014%=      5-min Rain = 0
KPD4 092143Z 21012KT 25/M04 A3005 RMK A01 T02521042  RH  014%=      5-min Rain = 0
KPD4 092144Z 21013KT 25/M04 A3005 RMK A01 T02521041  RH  014%=      5-min Rain = 0
KPD4 092145Z 21016KT 25/M04 A3004 RMK A01 T02531044  RH  014%=      5-min Rain = 0
KPD4 092146Z 19013KT 25/M05 A3004 RMK A01 T02521046  RH  014%=      5-min Rain = 0
KPD4 092147Z 19015KT 25/M04 A3005 RMK A01 T02531044  RH  014%=      5-min Rain = 0
KPD4 092148Z 20016KT 25/M05 A3004 RMK A01 T02531047  RH  013%=      5-min Rain = 0
KPD4 092149Z 20013KT 25/M05 A3004 RMK A01 T02521048  RH  013%=      5-min Rain = 0
KPD4 092150Z 20015KT 25/M05 A3004 RMK A01 T02521049  RH  013%=      5-min Rain = 0
KPD4 092151Z 21016KT 25/M05 A3004 RMK A01 T02531052  RH  013%=      5-min Rain = 0
KPD4 092152Z 21015KT 25/M06 A3004 RMK A01 T02521055  RH  013%=      5-min Rain = 0
KPD4 092153Z 21012KT 25/M06 A3004 RMK A01 T02511055  RH  013%=      5-min Rain = 0
KPD4 092154Z 22013KT 25/M05 A3004 RMK A01 T02511054  RH  013%=      5-min Rain = 0
KPD4 092155Z 22014KT 25/M05 A3004 RMK A01 T02521053  RH  013%=      5-min Rain = 0
KPD4 092156Z 23014KT 25/M05 A3004 RMK A01 T02521051  RH  013%=      5-min Rain = 0
KPD4 092157Z 22015KT 25/M05 A3004 RMK A01 T02521050  RH  013%=      5-min Rain = 0
KPD4 092158Z 21016KT 25/M05 A3004 RMK A01 T02511048  RH  013%=      5-min Rain = 0
KPD4 092159Z 22014KT 25/M05 A3004 RMK A01 T02511051  RH  013%=      5-min Rain = 0
KPD4 092200Z 22013KT 25/M05 A3004 RMK A01 T02501053  RH  013%=      5-min Rain = 0
KPD4 092201Z 23014KT 25/M06 A3004 RMK A01 T02501055  RH  013%=      5-min Rain = 0
KPD4 092202Z 22014KT 25/M05 A3004 RMK A01 T02501054  RH  013%=      5-min Rain = 0
KPD4 092203Z 22013KT 25/M05 A3004 RMK A01 T02501054  RH  013%=      5-min Rain = 0
KPD4 092204Z 23013KT 25/M06 A3004 RMK A01 T02511055  RH  013%=      5-min Rain = 0
KPD4 092205Z 22014KT 25/M05 A3004 RMK A01 T02521051  RH  013%=      5-min Rain = 0
KPD4 092206Z 21012KT 25/M04 A3004 RMK A01 T02511040  RH  014%=      5-min Rain = 0
KPD4 092207Z 21014KT 25/M04 A3004 RMK A01 T02511043  RH  014%=      5-min Rain = 0
KPD4 092208Z 21014KT 25/M05 A3004 RMK A01 T02501049  RH  013%=      5-min Rain = 0
KPD4 092209Z 22016KT 25/M05 A3004 RMK A01 T02501051  RH  013%=      5-min Rain = 0
KPD4 092210Z 22015KT 25/M05 A3004 RMK A01 T02491052  RH  013%=      5-min Rain = 0
KPD4 092211Z 22017KT 25/M06 A3004 RMK A01 T02481058  RH  013%=      5-min Rain = 0
KPD4 092212Z 22016KT 25/M06 A3004 RMK A01 T02481059  RH  013%=      5-min Rain = 0
KPD4 092213Z 22014KT 25/M06 A3004 RMK A01 T02471058  RH  013%=      5-min Rain = 0
KPD4 092214Z 22013KT 25/M06 A3004 RMK A01 T02471058  RH  013%=      5-min Rain = 0
KPD4 092215Z 22013KT 25/M06 A3004 RMK A01 T02471058  RH  013%=      5-min Rain = 0
KPD4 092216Z 21013G18KT 25/M06 A3004 RMK A01 T02471058  RH  013%=      5-min Rain = 0
KPD4 092217Z 22010KT 25/M06 A3004 RMK A01 T02471057  RH  013%=      5-min Rain = 0
KPD4 092218Z 22012G17KT 25/M05 A3004 RMK A01 T02481054  RH  013%=      5-min Rain = 0
KPD4 092219Z 21014KT 25/M05 A3004 RMK A01 T02481051  RH  013%=      5-min Rain = 0
KPD4 092220Z 22014KT 25/M05 A3004 RMK A01 T02481051  RH  013%=      5-min Rain = 0
KPD4 092221Z 22013KT 25/M05 A3004 RMK A01 T02471052  RH  013%=      5-min Rain = 0
KPD4 092222Z 22012KT 25/M05 A3004 RMK A01 T02461051  RH  013%=      5-min Rain = 0
KPD4 092223Z 20009KT 25/M05 A3004 RMK A01 T02461050  RH  014%=      5-min Rain = 0
KPD4 092224Z 20010KT 25/M05 A3004 RMK A01 T02471046  RH  014%=      5-min Rain = 0
KPD4 092225Z 19012KT 25/M04 A3004 RMK A01 T02481037  RH  015%=      5-min Rain = 0
KPD4 092226Z 20014KT 25/M04 A3004 RMK A01 T02471035  RH  015%=      5-min Rain = 0
KPD4 092227Z 19014KT 25/M04 A3004 RMK A01 T02461035  RH  015%=      5-min Rain = 0
KPD4 092228Z 20014KT 25/M04 A3004 RMK A01 T02451035  RH  015%=      5-min Rain = 0
KPD4 092229Z 20010KT 24/M03 A3004 RMK A01 T02441034  RH  016%=      5-min Rain = 0
KPD4 092230Z 19010KT 24/M03 A3004 RMK A01 T02441033  RH  016%=      5-min Rain = 0
KPD4 092231Z 19010KT 24/M03 A3004 RMK A01 T02441034  RH  016%=      5-min Rain = 0
KPD4 092232Z 19011KT 24/M03 A3004 RMK A01 T02441034  RH  016%=      5-min Rain = 0
KPD4 092233Z 20011KT 24/M04 A3004 RMK A01 T02431035  RH  016%=      5-min Rain = 0
KPD4 092234Z 19013KT 24/M03 A3004 RMK A01 T02431034  RH  016%=      5-min Rain = 0
KPD4 092235Z 20011KT 24/M04 A3004 RMK A01 T02421035  RH  016%=      5-min Rain = 0
KPD4 092236Z 19011KT 24/M03 A3004 RMK A01 T02421034  RH  016%=      5-min Rain = 0
KPD4 092237Z 19010KT 24/M03 A3004 RMK A01 T02421034  RH  016%=      5-min Rain = 0
KPD4 092238Z 20011G16KT 24/M03 A3004 RMK A01 T02421034  RH  016%=      5-min Rain = 0
KPD4 092239Z 20012KT 24/M03 A3004 RMK A01 T02411033  RH  016%=      5-min Rain = 0
KPD4 092240Z 20015KT 24/M03 A3004 RMK A01 T02401033  RH  016%=      5-min Rain = 0
KPD4 092241Z 20013KT 24/M03 A3004 RMK A01 T02401033  RH  016%=      5-min Rain = 0
KPD4 092242Z 20012KT 24/M03 A3004 RMK A01 T02391033  RH  016%=      5-min Rain = 0
KPD4 092243Z 19012KT 24/M03 A3004 RMK A01 T02391032  RH  016%=      5-min Rain = 0
KPD4 092244Z 20013KT 24/M03 A3004 RMK A01 T02391032  RH  016%=      5-min Rain = 0
KPD4 092245Z 20012KT 24/M03 A3004 RMK A01 T02381033  RH  016%=      5-min Rain = 0
KPD4 092246Z 19012KT 24/M03 A3004 RMK A01 T02381033  RH  016%=      5-min Rain = 0
KPD4 092247Z 19012KT 24/M03 A3003 RMK A01 T02371032  RH  016%=      5-min Rain = 0
KPD4 092248Z 19012KT 24/M03 A3003 RMK A01 T02371033  RH  016%=      5-min Rain = 0
KPD4 092249Z 19013KT 24/M03 A3003 RMK A01 T02361033  RH  016%=      5-min Rain = 0
KPD4 092250Z 19013KT 24/M03 A3003 RMK A01 T02361033  RH  017%=      5-min Rain = 0
KPD4 092251Z 19013KT 24/M03 A3003 RMK A01 T02351032  RH  017%=      5-min Rain = 0
KPD4 092252Z 19013KT 24/M03 A3003 RMK A01 T02351032  RH  017%=      5-min Rain = 0
KPD4 092253Z 19012KT 23/M03 A3003 RMK A01 T02341032  RH  017%=      5-min Rain = 0
KPD4 092254Z 19012KT 23/M03 A3003 RMK A01 T02341032  RH  017%=      5-min Rain = 0
KPD4 092255Z 20011KT 23/M03 A3003 RMK A01 T02331032  RH  017%=      5-min Rain = 0
KPD4 092256Z 20012KT 23/M03 A3003 RMK A01 T02321032  RH  017%=      5-min Rain = 0
KPD4 092257Z 19012KT 23/M03 A3003 RMK A01 T02321033  RH  017%=      5-min Rain = 0
KPD4 092258Z 20012KT 23/M03 A3003 RMK A01 T02311033  RH  017%=      5-min Rain = 0
KPD4 092259Z 20010KT 23/M03 A3003 RMK A01 T02311034  RH  017%=      5-min Rain = 0
KPD4 092300Z 19011KT 23/M03 A3003 RMK A01 T02301034  RH  017%=      5-min Rain = 0
KPD4 092301Z 20011KT 23/M03 A3003 RMK A01 T02301033  RH  017%=      5-min Rain = 0
KPD4 092302Z 20011KT 23/M03 A3003 RMK A01 T02291034  RH  017%=      5-min Rain = 0
KPD4 092303Z 20009KT 23/M03 A3003 RMK A01 T02281034  RH  017%=      5-min Rain = 0
KPD4 092304Z 19009KT 23/M03 A3003 RMK A01 T02281034  RH  017%=      5-min Rain = 0
KPD4 092305Z 19009KT 23/M03 A3003 RMK A01 T02271034  RH  017%=      5-min Rain = 0
KPD4 092306Z 19008KT 23/M03 A3003 RMK A01 T02261034  RH  017%=      5-min Rain = 0
KPD4 092307Z 19008KT 23/M03 A3003 RMK A01 T02251034  RH  017%=      5-min Rain = 0
KPD4 092308Z 19008KT 22/M04 A3003 RMK A01 T02241035  RH  018%=      5-min Rain = 0
KPD4 092309Z 20008KT 22/M04 A3003 RMK A01 T02231035  RH  018%=      5-min Rain = 0
KPD4 092310Z 19008KT 22/M04 A3003 RMK A01 T02221035  RH  018%=      5-min Rain = 0
KPD4 092311Z 20008KT 22/M04 A3003 RMK A01 T02201035  RH  018%=      5-min Rain = 0
KPD4 092312Z 20010KT 22/M04 A3003 RMK A01 T02191035  RH  018%=      5-min Rain = 0
KPD4 092313Z 20009KT 22/M04 A3003 RMK A01 T02181035  RH  018%=      5-min Rain = 0
KPD4 092314Z 20010KT 22/M04 A3003 RMK A01 T02171035  RH  018%=      5-min Rain = 0
KPD4 092315Z 20010KT 22/M04 A3003 RMK A01 T02161035  RH  018%=      5-min Rain = 0
KPD4 092316Z 20009KT 22/M04 A3003 RMK A01 T02161035  RH  018%=      5-min Rain = 0
KPD4 092317Z 19009KT 22/M04 A3003 RMK A01 T02151036  RH  018%=      5-min Rain = 0
KPD4 092318Z 20010KT 21/M04 A3003 RMK A01 T02141036  RH  018%=      5-min Rain = 0
KPD4 092319Z 20009KT 21/M04 A3003 RMK A01 T02131036  RH  019%=      5-min Rain = 0
KPD4 092320Z 20009KT 21/M04 A3003 RMK A01 T02121036  RH  019%=      5-min Rain = 0
KPD4 092321Z 20008KT 21/M04 A3003 RMK A01 T02111035  RH  019%=      5-min Rain = 0
KPD4 092322Z 20008KT 21/M04 A3003 RMK A01 T02091036  RH  019%=      5-min Rain = 0
KPD4 092323Z 20008KT 21/M04 A3003 RMK A01 T02081036  RH  019%=      5-min Rain = 0
KPD4 092324Z 20008KT 21/M04 A3003 RMK A01 T02061036  RH  019%=      5-min Rain = 0
KPD4 092325Z 20008KT 21/M04 A3003 RMK A01 T02051036  RH  019%=      5-min Rain = 0
KPD4 092326Z 21008KT 20/M04 A3003 RMK A01 T02041035  RH  020%=      5-min Rain = 0
KPD4 092327Z 20007KT 20/M04 A3003 RMK A01 T02031036  RH  020%=      5-min Rain = 0
KPD4 092328Z 20007KT 20/M04 A3003 RMK A01 T02021036  RH  020%=      5-min Rain = 0
KPD4 092329Z 21007KT 20/M04 A3003 RMK A01 T02011036  RH  020%=      5-min Rain = 0
KPD4 092330Z 21008KT 20/M04 A3003 RMK A01 T02001035  RH  020%=      5-min Rain = 0
KPD4 092331Z 21009KT 20/M04 A3003 RMK A01 T01991035  RH  020%=      5-min Rain = 0
KPD4 092332Z 20008KT 20/M03 A3003 RMK A01 T02001034  RH  020%=      5-min Rain = 0
KPD4 092333Z 20008KT 20/M03 A3003 RMK A01 T02001034  RH  020%=      5-min Rain = 0
KPD4 092334Z 20008KT 20/M03 A3003 RMK A01 T01981034  RH  021%=      5-min Rain = 0
KPD4 092335Z 21008KT 20/M03 A3003 RMK A01 T01971034  RH  021%=      5-min Rain = 0
KPD4 092336Z 21008KT 20/M03 A3003 RMK A01 T01961034  RH  021%=      5-min Rain = 0
KPD4 092337Z 21008KT 20/M03 A3003 RMK A01 T01951033  RH  021%=      5-min Rain = 0
KPD4 092338Z 21007KT 19/M03 A3003 RMK A01 T01941033  RH  021%=      5-min Rain = 0
KPD4 092339Z 21008KT 19/M03 A3003 RMK A01 T01921033  RH  021%=      5-min Rain = 0
KPD4 092340Z 21008KT 19/M03 A3003 RMK A01 T01911033  RH  022%=      5-min Rain = 0
KPD4 092341Z 21008KT 19/M03 A3003 RMK A01 T01901032  RH  022%=      5-min Rain = 0
KPD4 092342Z 21008KT 19/M03 A3003 RMK A01 T01891032  RH  022%=      5-min Rain = 0
KPD4 092343Z 21008KT 19/M03 A3003 RMK A01 T01881031  RH  022%=      5-min Rain = 0
KPD4 092344Z 21009KT 19/M03 A3003 RMK A01 T01871031  RH  023%=      5-min Rain = 0
KPD4 092345Z 21009KT 19/M03 A3003 RMK A01 T01861030  RH  023%=      5-min Rain = 0
KPD4 092346Z 21009KT 19/M03 A3003 RMK A01 T01861029  RH  023%=      5-min Rain = 0
KPD4 092347Z 21009KT 19/M03 A3002 RMK A01 T01861028  RH  023%=      5-min Rain = 0
KPD4 092348Z 21009KT 19/M03 A3002 RMK A01 T01861027  RH  023%=      5-min Rain = 0
KPD4 092349Z 21009KT 19/M03 A3002 RMK A01 T01851027  RH  024%=      5-min Rain = 0
KPD4 092350Z 21008KT 19/M03 A3002 RMK A01 T01851026  RH  024%=      5-min Rain = 0
KPD4 092351Z 21008KT 19/M03 A3002 RMK A01 T01861025  RH  024%=      5-min Rain = 0
KPD4 092352Z 21008KT 19/M03 A3002 RMK A01 T01851025  RH  024%=      5-min Rain = 0
KPD4 092353Z 21008KT 18/M03 A3002 RMK A01 T01841025  RH  024%=      5-min Rain = 0
KPD4 092354Z 21008KT 18/M02 A3002 RMK A01 T01831024  RH  024%=      5-min Rain = 0
KPD4 092355Z 21008KT 18/M02 A3002 RMK A01 T01831024  RH  024%=      5-min Rain = 0
KPD4 092356Z 21008KT 18/M02 A3003 RMK A01 T01821024  RH  024%=      5-min Rain = 0
KPD4 092357Z 21008KT 18/M03 A3003 RMK A01 T01811025  RH  025%=      5-min Rain = 0
KPD4 092358Z 21008KT 18/M02 A3003 RMK A01 T01801024  RH  025%=      5-min Rain = 0
KPD4 092359Z 21007KT 18/M02 A3003 RMK A01 T01791023  RH  025%=      5-min Rain = 0
KPD4 100000Z 21007KT 18/M02 A3002 RMK A01 T01771023  RH  025%=      5-min Rain = 0
KPD4 100001Z 21007KT 18/M02 A3003 RMK A01 T01761023  RH  026%=      5-min Rain = 0
KPD4 100002Z 21007KT 18/M02 A3002 RMK A01 T01751023  RH  026%=      5-min Rain = 0
KPD4 100003Z 21007KT 17/M02 A3002 RMK A01 T01741022  RH  026%=      5-min Rain = 0
KPD4 100004Z 21007KT 17/M02 A3002 RMK A01 T01731022  RH  026%=      5-min Rain = 0
KPD4 100005Z 21007KT 17/M02 A3002 RMK A01 T01721021  RH  027%=      5-min Rain = 0
KPD4 100006Z 21007KT 17/M02 A3002 RMK A01 T01711021  RH  027%=      5-min Rain = 0
KPD4 100007Z 21007KT 17/M02 A3002 RMK A01 T01711021  RH  027%=      5-min Rain = 0
KPD4 100008Z 21007KT 17/M02 A3002 RMK A01 T01691021  RH  027%=      5-min Rain = 0
KPD4 100009Z 21007KT 17/M02 A3002 RMK A01 T01681021  RH  027%=      5-min Rain = 0
KPD4 100010Z 21007KT 17/M02 A3002 RMK A01 T01671021  RH  028%=      5-min Rain = 0
KPD4 100011Z 21006KT 17/M02 A3002 RMK A01 T01661020  RH  028%=      5-min Rain = 0
KPD4 100012Z 21006KT 17/M02 A3002 RMK A01 T01651020  RH  028%=      5-min Rain = 0
KPD4 100013Z 21006KT 16/M02 A3002 RMK A01 T01641020  RH  028%=      5-min Rain = 0
KPD4 100014Z 21006KT 16/M02 A3002 RMK A01 T01641020  RH  028%=      5-min Rain = 0
KPD4 100015Z 21006KT 16/M02 A3002 RMK A01 T01631020  RH  028%=      5-min Rain = 0
KPD4 100016Z 21006KT 16/M02 A3002 RMK A01 T01631019  RH  029%=      5-min Rain = 0
KPD4 100017Z 21006KT 16/M02 A3002 RMK A01 T01631019  RH  029%=      5-min Rain = 0
KPD4 100018Z 21006KT 16/M02 A3002 RMK A01 T01631019  RH  029%=      5-min Rain = 0
KPD4 100019Z 21006KT 16/M02 A3002 RMK A01 T01631019  RH  029%=      5-min Rain = 0
KPD4 100020Z 21007KT 16/M02 A3002 RMK A01 T01631019  RH  029%=      5-min Rain = 0
KPD4 100021Z 21006KT 16/M02 A3002 RMK A01 T01621019  RH  029%=      5-min Rain = 0
KPD4 100022Z 20006KT 16/M02 A3002 RMK A01 T01611019  RH  029%=      5-min Rain = 0
KPD4 100023Z 20006KT 16/M02 A3002 RMK A01 T01611019  RH  029%=      5-min Rain = 0
KPD4 100024Z 20006KT 16/M02 A3002 RMK A01 T01601019  RH  029%=      5-min Rain = 0
KPD4 100025Z 20006KT 16/M02 A3002 RMK A01 T01591020  RH  029%=      5-min Rain = 0
KPD4 100026Z 20006KT 16/M02 A3002 RMK A01 T01571020  RH  030%=      5-min Rain = 0
KPD4 100027Z 20006KT 16/M02 A3002 RMK A01 T01561020  RH  030%=      5-min Rain = 0
KPD4 100028Z 20006KT 16/M02 A3002 RMK A01 T01551019  RH  030%=      5-min Rain = 0
KPD4 100029Z 20006KT 16/M02 A3002 RMK A01 T01551019  RH  030%=      5-min Rain = 0
KPD4 100030Z 20006KT 16/M02 A3002 RMK A01 T01551019  RH  030%=      5-min Rain = 0
KPD4 100031Z 19006KT 16/M02 A3002 RMK A01 T01551019  RH  030%=      5-min Rain = 0
KPD4 100032Z 20006KT 15/M02 A3002 RMK A01 T01541019  RH  030%=      5-min Rain = 0
KPD4 100033Z 20006KT 15/M02 A3002 RMK A01 T01541019  RH  030%=      5-min Rain = 0
KPD4 100034Z 19006KT 15/M02 A3002 RMK A01 T01531019  RH  031%=      5-min Rain = 0
KPD4 100035Z 20006KT 15/M02 A3002 RMK A01 T01521019  RH  031%=      5-min Rain = 0
KPD4 100036Z 20006KT 15/M02 A3002 RMK A01 T01531018  RH  031%=      5-min Rain = 0
KPD4 100037Z 20006KT 15/M02 A3002 RMK A01 T01541018  RH  031%=      5-min Rain = 0
KPD4 100038Z 20006KT 15/M02 A3002 RMK A01 T01541018  RH  031%=      5-min Rain = 0
KPD4 100039Z 20006KT 16/M02 A3002 RMK A01 T01551017  RH  031%=      5-min Rain = 0
KPD4 100040Z 20005KT 16/M02 A3002 RMK A01 T01561017  RH  030%=      5-min Rain = 0
KPD4 100041Z 20005KT 16/M02 A3002 RMK A01 T01561017  RH  030%=      5-min Rain = 0
KPD4 100042Z 20006KT 16/M02 A3002 RMK A01 T01571017  RH  030%=      5-min Rain = 0
KPD4 100043Z 20005KT 16/M02 A3002 RMK A01 T01571017  RH  030%=      5-min Rain = 0
KPD4 100044Z 20006KT 16/M02 A3002 RMK A01 T01571017  RH  030%=      5-min Rain = 0
KPD4 100045Z 20006KT 16/M02 A3002 RMK A01 T01571016  RH  031%=      5-min Rain = 0
KPD4 100046Z 20005KT 16/M02 A3002 RMK A01 T01571015  RH  031%=      5-min Rain = 0
KPD4 100047Z 20006KT 16/M02 A3002 RMK A01 T01571015  RH  031%=      5-min Rain = 0
KPD4 100048Z 20005KT 16/M02 A3002 RMK A01 T01561015  RH  031%=      5-min Rain = 0
KPD4 100049Z 20005KT 16/M02 A3003 RMK A01 T01561015  RH  031%=      5-min Rain = 0
KPD4 100050Z 20005KT 16/M01 A3003 RMK A01 T01561014  RH  031%=      5-min Rain = 0
KPD4 100051Z 20005KT 16/M01 A3003 RMK A01 T01551014  RH  031%=      5-min Rain = 0
KPD4 100052Z 20005KT 16/M01 A3003 RMK A01 T01551014  RH  031%=      5-min Rain = 0
KPD4 100053Z 20005KT 16/M01 A3003 RMK A01 T01551013  RH  032%=      5-min Rain = 0
KPD4 100054Z 20005KT 16/M01 A3003 RMK A01 T01551013  RH  032%=      5-min Rain = 0
KPD4 100055Z 20006KT 15/M01 A3003 RMK A01 T01541013  RH  032%=      5-min Rain = 0
KPD4 100056Z 20006KT 15/M01 A3003 RMK A01 T01531014  RH  032%=      5-min Rain = 0
KPD4 100057Z 20006KT 15/M01 A3003 RMK A01 T01521014  RH  032%=      5-min Rain = 0
KPD4 100058Z 20006KT 15/M01 A3003 RMK A01 T01511013  RH  032%=      5-min Rain = 0
KPD4 100059Z 20006KT 15/M01 A3003 RMK A01 T01511012  RH  033%=      5-min Rain = 0
KPD4 100100Z 20006KT 15/M01 A3003 RMK A01 T01511012  RH  033%=      5-min Rain = 0
KPD4 100101Z 20006KT 15/M01 A3003 RMK A01 T01491013  RH  033%=      5-min Rain = 0
KPD4 100102Z 20006KT 15/M01 A3003 RMK A01 T01491012  RH  033%=      5-min Rain = 0
KPD4 100103Z 20006KT 15/M01 A3003 RMK A01 T01481012  RH  033%=      5-min Rain = 0
KPD4 100104Z 20006KT 15/M01 A3003 RMK A01 T01471012  RH  033%=      5-min Rain = 0
KPD4 100105Z 20006KT 15/M01 A3003 RMK A01 T01461012  RH  034%=      5-min Rain = 0
KPD4 100106Z 20006KT 15/M01 A3003 RMK A01 T01451012  RH  034%=      5-min Rain = 0
KPD4 100107Z 20006KT 14/M01 A3003 RMK A01 T01441012  RH  034%=      5-min Rain = 0
KPD4 100108Z 20006KT 14/M01 A3003 RMK A01 T01421012  RH  034%=      5-min Rain = 0
KPD4 100109Z 20006KT 14/M01 A3003 RMK A01 T01411012  RH  035%=      5-min Rain = 0
KPD4 100110Z 20006KT 14/M01 A3003 RMK A01 T01401012  RH  035%=      5-min Rain = 0
KPD4 100111Z 20006KT 14/M01 A3003 RMK A01 T01381013  RH  035%=      5-min Rain = 0
KPD4 100112Z 20006KT 14/M01 A3003 RMK A01 T01371013  RH  036%=      5-min Rain = 0
KPD4 100113Z 20006KT 14/M01 A3003 RMK A01 T01361012  RH  036%=      5-min Rain = 0
KPD4 100114Z 20006KT 14/M01 A3003 RMK A01 T01351012  RH  036%=      5-min Rain = 0
KPD4 100115Z 20006KT 13/M01 A3003 RMK A01 T01341012  RH  036%=      5-min Rain = 0
KPD4 100116Z 20006KT 13/M01 A3003 RMK A01 T01341012  RH  037%=      5-min Rain = 0
KPD4 100117Z 20006KT 13/M01 A3003 RMK A01 T01331012  RH  037%=      5-min Rain = 0
KPD4 100118Z 20006KT 13/M01 A3003 RMK A01 T01321012  RH  037%=      5-min Rain = 0
KPD4 100119Z 20006KT 13/M01 A3003 RMK A01 T01311012  RH  037%=      5-min Rain = 0
KPD4 100120Z 20006KT 13/M01 A3003 RMK A01 T01311012  RH  037%=      5-min Rain = 0
KPD4 100121Z 20006KT 13/M01 A3003 RMK A01 T01311011  RH  037%=      5-min Rain = 0
KPD4 100122Z 20006KT 13/M01 A3003 RMK A01 T01311011  RH  038%=      5-min Rain = 0
KPD4 100123Z 20006KT 13/M01 A3003 RMK A01 T01311011  RH  038%=      5-min Rain = 0
KPD4 100124Z 20006KT 13/M01 A3003 RMK A01 T01311011  RH  038%=      5-min Rain = 0
KPD4 100125Z 20006KT 13/M01 A3003 RMK A01 T01311010  RH  038%=      5-min Rain = 0
KPD4 100126Z 20006KT 13/M01 A3003 RMK A01 T01311010  RH  038%=      5-min Rain = 0
KPD4 100127Z 20006KT 13/M01 A3003 RMK A01 T01311009  RH  038%=      5-min Rain = 0
KPD4 100128Z 20006KT 13/M01 A3003 RMK A01 T01311009  RH  038%=      5-min Rain = 0
KPD4 100129Z 20006KT 13/M01 A3003 RMK A01 T01311009  RH  038%=      5-min Rain = 0
KPD4 100130Z 20006KT 13/M01 A3003 RMK A01 T01301010  RH  038%=      5-min Rain = 0
KPD4 100131Z 20006KT 13/M01 A3003 RMK A01 T01301010  RH  038%=      5-min Rain = 0
KPD4 100132Z 20006KT 13/M01 A3003 RMK A01 T01291010  RH  038%=      5-min Rain = 0
KPD4 100133Z 20005KT 13/M01 A3003 RMK A01 T01291010  RH  038%=      5-min Rain = 0
KPD4 100134Z 19005KT 13/M01 A3003 RMK A01 T01281009  RH  039%=      5-min Rain = 0
KPD4 100135Z 19005KT 13/M01 A3003 RMK A01 T01281009  RH  039%=      5-min Rain = 0
KPD4 100136Z 19006KT 13/M01 A3003 RMK A01 T01281009  RH  039%=      5-min Rain = 0
KPD4 100137Z 19006KT 13/M01 A3003 RMK A01 T01281009  RH  039%=      5-min Rain = 0
KPD4 100138Z 19006KT 13/M01 A3003 RMK A01 T01281009  RH  039%=      5-min Rain = 0
KPD4 100139Z 19006KT 13/M01 A3003 RMK A01 T01271009  RH  039%=      5-min Rain = 0
KPD4 100140Z 19006KT 13/M01 A3003 RMK A01 T01271009  RH  039%=      5-min Rain = 0
KPD4 100141Z 20006KT 13/M01 A3003 RMK A01 T01271009  RH  039%=      5-min Rain = 0
KPD4 100142Z 20006KT 13/M01 A3003 RMK A01 T01271009  RH  039%=      5-min Rain = 0
KPD4 100143Z 20006KT 13/M01 A3003 RMK A01 T01261009  RH  039%=      5-min Rain = 0
KPD4 100144Z 20006KT 13/M01 A3003 RMK A01 T01261009  RH  039%=      5-min Rain = 0
KPD4 100145Z 20006KT 13/M01 A3003 RMK A01 T01261010  RH  039%=      5-min Rain = 0
KPD4 100146Z 20006KT 13/M01 A3003 RMK A01 T01251009  RH  039%=      5-min Rain = 0
KPD4 100147Z 20006KT 13/M01 A3003 RMK A01 T01251010  RH  039%=      5-min Rain = 0
KPD4 100148Z 20006KT 12/M01 A3003 RMK A01 T01241010  RH  039%=      5-min Rain = 0
KPD4 100149Z 20006KT 13/M01 A3003 RMK A01 T01251010  RH  039%=      5-min Rain = 0
KPD4 100150Z 20006KT 13/M01 A3003 RMK A01 T01251010  RH  039%=      5-min Rain = 0
KPD4 100151Z 20007KT 13/M01 A3003 RMK A01 T01251010  RH  039%=      5-min Rain = 0
KPD4 100152Z 20007KT 13/M01 A3003 RMK A01 T01251010  RH  039%=      5-min Rain = 0
KPD4 100153Z 20007KT 12/M01 A3003 RMK A01 T01241011  RH  039%=      5-min Rain = 0
KPD4 100154Z 20007KT 12/M01 A3003 RMK A01 T01231011  RH  040%=      5-min Rain = 0
KPD4 100155Z 20007KT 12/M01 A3003 RMK A01 T01211011  RH  040%=      5-min Rain = 0
KPD4 100156Z 21007KT 12/M01 A3003 RMK A01 T01201011  RH  040%=      5-min Rain = 0
KPD4 100157Z 21007KT 12/M01 A3003 RMK A01 T01201011  RH  040%=      5-min Rain = 0
KPD4 100158Z 21007KT 12/M01 A3003 RMK A01 T01191012  RH  040%=      5-min Rain = 0
KPD4 100159Z 20007KT 12/M01 A3003 RMK A01 T01181012  RH  040%=      5-min Rain = 0
KPD4 100200Z 21007KT 12/M01 A3003 RMK A01 T01181012  RH  041%=      5-min Rain = 0
KPD4 100201Z 20007KT 12/M01 A3003 RMK A01 T01171012  RH  041%=      5-min Rain = 0
KPD4 100202Z 20007KT 12/M01 A3003 RMK A01 T01161012  RH  041%=      5-min Rain = 0
KPD4 100203Z 20007KT 12/M01 A3003 RMK A01 T01151012  RH  041%=      5-min Rain = 0
KPD4 100204Z 20007KT 11/M01 A3003 RMK A01 T01141012  RH  041%=      5-min Rain = 0
KPD4 100205Z 20007KT 11/M01 A3003 RMK A01 T01141012  RH  041%=      5-min Rain = 0
KPD4 100206Z 20007KT 11/M01 A3003 RMK A01 T01141013  RH  041%=      5-min Rain = 0
KPD4 100207Z 20007KT 11/M01 A3003 RMK A01 T01131013  RH  042%=      5-min Rain = 0
KPD4 100208Z 20007KT 11/M01 A3003 RMK A01 T01121013  RH  042%=      5-min Rain = 0
KPD4 100209Z 20007KT 11/M01 A3003 RMK A01 T01111013  RH  042%=      5-min Rain = 0
KPD4 100210Z 20007KT 11/M01 A3003 RMK A01 T01101013  RH  042%=      5-min Rain = 0
KPD4 100211Z 20007KT 11/M01 A3003 RMK A01 T01101013  RH  042%=      5-min Rain = 0
KPD4 100212Z 20007KT 11/M01 A3003 RMK A01 T01101013  RH  042%=      5-min Rain = 0
KPD4 100213Z 20007KT 11/M01 A3003 RMK A01 T01101013  RH  042%=      5-min Rain = 0
KPD4 100214Z 20006KT 11/M01 A3002 RMK A01 T01101014  RH  042%=      5-min Rain = 0
KPD4 100215Z 20006KT 11/M01 A3002 RMK A01 T01091014  RH  042%=      5-min Rain = 0
KPD4 100216Z 20006KT 11/M01 A3002 RMK A01 T01091014  RH  042%=      5-min Rain = 0
KPD4 100217Z 20006KT 11/M02 A3002 RMK A01 T01081015  RH  042%=      5-min Rain = 0
KPD4 100218Z 20006KT 11/M02 A3002 RMK A01 T01071015  RH  043%=      5-min Rain = 0
KPD4 100219Z 20006KT 11/M02 A3002 RMK A01 T01051015  RH  043%=      5-min Rain = 0
KPD4 100220Z 20006KT 11/M02 A3002 RMK A01 T01051015  RH  043%=      5-min Rain = 0
KPD4 100221Z 20006KT 10/M02 A3002 RMK A01 T01041015  RH  043%=      5-min Rain = 0
KPD4 100222Z 20006KT 10/M02 A3002 RMK A01 T01041015  RH  044%=      5-min Rain = 0
KPD4 100223Z 20006KT 10/M02 A3002 RMK A01 T01031015  RH  044%=      5-min Rain = 0
KPD4 100224Z 20007KT 10/M01 A3002 RMK A01 T01031014  RH  044%=      5-min Rain = 0
KPD4 100225Z 20006KT 10/M02 A3002 RMK A01 T01031015  RH  044%=      5-min Rain = 0
KPD4 100226Z 20006KT 10/M02 A3002 RMK A01 T01031015  RH  044%=      5-min Rain = 0
KPD4 100227Z 20006KT 10/M02 A3002 RMK A01 T01031015  RH  044%=      5-min Rain = 0
KPD4 100228Z 20006KT 10/M02 A3003 RMK A01 T01031015  RH  044%=      5-min Rain = 0
KPD4 100229Z 20006KT 10/M02 A3003 RMK A01 T01031015  RH  044%=      5-min Rain = 0
KPD4 100230Z 20007KT 10/M02 A3003 RMK A01 T01031015  RH  044%=      5-min Rain = 0
KPD4 100231Z 20007KT 10/M02 A3003 RMK A01 T01031015  RH  044%=      5-min Rain = 0
KPD4 100232Z 20006KT 10/M02 A3003 RMK A01 T01031015  RH  044%=      5-min Rain = 0
KPD4 100233Z 20006KT 10/M02 A3003 RMK A01 T01021016  RH  044%=      5-min Rain = 0
KPD4 100234Z 20006KT 10/M02 A3003 RMK A01 T01021016  RH  044%=      5-min Rain = 0
KPD4 100235Z 20007KT 10/M02 A3003 RMK A01 T01021016  RH  044%=      5-min Rain = 0
KPD4 100236Z 20007KT 10/M02 A3003 RMK A01 T01011016  RH  044%=      5-min Rain = 0
KPD4 100237Z 20006KT 10/M02 A3003 RMK A01 T01011016  RH  044%=      5-min Rain = 0
KPD4 100238Z 20006KT 10/M02 A3003 RMK A01 T01001016  RH  044%=      5-min Rain = 0
KPD4 100239Z 20007KT 10/M02 A3003 RMK A01 T00991017  RH  044%=      5-min Rain = 0
KPD4 100240Z 20007KT 10/M02 A3003 RMK A01 T00991017  RH  044%=      5-min Rain = 0
KPD4 100241Z 20007KT 10/M02 A3003 RMK A01 T00991017  RH  044%=      5-min Rain = 0
KPD4 100242Z 20007KT 10/M02 A3003 RMK A01 T00981018  RH  044%=      5-min Rain = 0
KPD4 100243Z 20007KT 10/M02 A3003 RMK A01 T00981018  RH  044%=      5-min Rain = 0
KPD4 100244Z 20008KT 10/M02 A3003 RMK A01 T00981019  RH  044%=      5-min Rain = 0
KPD4 100245Z 20007KT 10/M02 A3003 RMK A01 T00971019  RH  044%=      5-min Rain = 0
KPD4 100246Z 21007KT 10/M02 A3003 RMK A01 T00971020  RH  044%=      5-min Rain = 0
KPD4 100247Z 20008KT 10/M02 A3003 RMK A01 T00961020  RH  044%=      5-min Rain = 0
KPD4 100248Z 20008KT 10/M02 A3003 RMK A01 T00951021  RH  044%=      5-min Rain = 0
KPD4 100249Z 20008KT 10/M02 A3003 RMK A01 T00951021  RH  044%=      5-min Rain = 0
KPD4 100250Z 20008KT 09/M02 A3003 RMK A01 T00941021  RH  044%=      5-min Rain = 0
KPD4 100251Z 20008KT 09/M02 A3003 RMK A01 T00941021  RH  044%=      5-min Rain = 0
KPD4 100252Z 21008KT 09/M02 A3002 RMK A01 T00931021  RH  045%=      5-min Rain = 0
KPD4 100253Z 21008KT 09/M02 A3002 RMK A01 T00921021  RH  045%=      5-min Rain = 0
KPD4 100254Z 21008KT 09/M02 A3002 RMK A01 T00911022  RH  045%=      5-min Rain = 0
KPD4 100255Z 21008KT 09/M02 A3002 RMK A01 T00891023  RH  045%=      5-min Rain = 0
KPD4 100256Z 21008KT 09/M02 A3002 RMK A01 T00881023  RH  046%=      5-min Rain = 0
KPD4 100257Z 21008KT 09/M02 A3003 RMK A01 T00871023  RH  046%=      5-min Rain = 0
KPD4 100258Z 20008KT 09/M02 A3003 RMK A01 T00871023  RH  046%=      5-min Rain = 0
KPD4 100259Z 20007KT 09/M02 A3003 RMK A01 T00861023  RH  046%=      5-min Rain = 0
KPD4 100300Z 21007KT 09/M02 A3003 RMK A01 T00861023  RH  046%=      5-min Rain = 0
KPD4 100301Z 20007KT 09/M02 A3003 RMK A01 T00851023  RH  046%=      5-min Rain = 0
KPD4 100302Z 20007KT 09/M02 A3003 RMK A01 T00851023  RH  047%=      5-min Rain = 0
KPD4 100303Z 20006KT 08/M02 A3003 RMK A01 T00841023  RH  047%=      5-min Rain = 0
KPD4 100304Z 20007KT 09/M02 A3003 RMK A01 T00851023  RH  047%=      5-min Rain = 0
KPD4 100305Z 20007KT 09/M02 A3003 RMK A01 T00851023  RH  047%=      5-min Rain = 0
KPD4 100306Z 20007KT 09/M02 A3003 RMK A01 T00851023  RH  047%=      5-min Rain = 0
KPD4 100307Z 20007KT 09/M02 A3003 RMK A01 T00851023  RH  047%=      5-min Rain = 0
KPD4 100308Z 20007KT 09/M02 A3003 RMK A01 T00851023  RH  047%=      5-min Rain = 0
KPD4 100309Z 20008KT 09/M02 A3003 RMK A01 T00851023  RH  046%=      5-min Rain = 0
KPD4 100310Z 21007KT 09/M02 A3003 RMK A01 T00851023  RH  047%=      5-min Rain = 0
KPD4 100311Z 21007KT 08/M02 A3003 RMK A01 T00841023  RH  047%=      5-min Rain = 0
KPD4 100312Z 21007KT 08/M02 A3003 RMK A01 T00831024  RH  047%=      5-min Rain = 0
KPD4 100313Z 21007KT 08/M02 A3003 RMK A01 T00831024  RH  047%=      5-min Rain = 0
KPD4 100314Z 20007KT 08/M02 A3003 RMK A01 T00831024  RH  047%=      5-min Rain = 0
KPD4 100315Z 20007KT 08/M02 A3003 RMK A01 T00831024  RH  047%=      5-min Rain = 0
KPD4 100316Z 21007KT 08/M02 A3003 RMK A01 T00831024  RH  047%=      5-min Rain = 0
KPD4 100317Z 20007KT 08/M02 A3003 RMK A01 T00821024  RH  047%=      5-min Rain = 0
KPD4 100318Z 20007KT 08/M02 A3003 RMK A01 T00821024  RH  047%=      5-min Rain = 0
KPD4 100319Z 20007KT 08/M02 A3003 RMK A01 T00821024  RH  047%=      5-min Rain = 0
KPD4 100320Z 20007KT 08/M02 A3003 RMK A01 T00821024  RH  047%=      5-min Rain = 0
KPD4 100321Z 20007KT 08/M03 A3002 RMK A01 T00801025  RH  047%=      5-min Rain = 0
KPD4 100322Z 20007KT 08/M03 A3002 RMK A01 T00791025  RH  048%=      5-min Rain = 0
KPD4 100323Z 20008KT 08/M03 A3002 RMK A01 T00791025  RH  048%=      5-min Rain = 0
KPD4 100324Z 20007KT 08/M03 A3002 RMK A01 T00781025  RH  048%=      5-min Rain = 0
KPD4 100325Z 20007KT 08/M03 A3002 RMK A01 T00771025  RH  048%=      5-min Rain = 0
KPD4 100326Z 20007KT 08/M03 A3003 RMK A01 T00771025  RH  048%=      5-min Rain = 0
KPD4 100327Z 20007KT 08/M03 A3003 RMK A01 T00761026  RH  048%=      5-min Rain = 0
KPD4 100328Z 20007KT 08/M03 A3003 RMK A01 T00761025  RH  049%=      5-min Rain = 0
KPD4 100329Z 20008KT 08/M03 A3003 RMK A01 T00761025  RH  049%=      5-min Rain = 0
KPD4 100330Z 20008KT 08/M03 A3003 RMK A01 T00761025  RH  049%=      5-min Rain = 0
KPD4 100331Z 20008KT 08/M03 A3003 RMK A01 T00761025  RH  049%=      5-min Rain = 0
KPD4 100332Z 20008KT 08/M03 A3003 RMK A01 T00761025  RH  048%=      5-min Rain = 0
KPD4 100333Z 20008KT 08/M03 A3003 RMK A01 T00771025  RH  048%=      5-min Rain = 0
KPD4 100334Z 20008KT 08/M03 A3003 RMK A01 T00771025  RH  048%=      5-min Rain = 0
KPD4 100335Z 20008KT 08/M03 A3003 RMK A01 T00771025  RH  048%=      5-min Rain = 0
KPD4 100336Z 20008KT 08/M03 A3003 RMK A01 T00771025  RH  048%=      5-min Rain = 0
KPD4 100337Z 20008KT 08/M03 A3003 RMK A01 T00771025  RH  048%=      5-min Rain = 0
KPD4 100338Z 20008KT 08/M03 A3003 RMK A01 T00771025  RH  048%=      5-min Rain = 0
KPD4 100339Z 20009KT 08/M03 A3003 RMK A01 T00771025  RH  048%=      5-min Rain = 0
KPD4 100340Z 20009KT 08/M03 A3003 RMK A01 T00771025  RH  048%=      5-min Rain = 0
KPD4 100341Z 20009KT 08/M03 A3003 RMK A01 T00781025  RH  048%=      5-min Rain = 0
KPD4 100342Z 21008KT 08/M03 A3003 RMK A01 T00771025  RH  048%=      5-min Rain = 0
KPD4 100343Z 21008KT 08/M03 A3003 RMK A01 T00771026  RH  048%=      5-min Rain = 0
KPD4 100344Z 21008KT 08/M03 A3003 RMK A01 T00761026  RH  048%=      5-min Rain = 0
KPD4 100345Z 21009KT 08/M03 A3003 RMK A01 T00751026  RH  049%=      5-min Rain = 0
KPD4 100346Z 21009KT 08/M03 A3003 RMK A01 T00751026  RH  049%=      5-min Rain = 0
KPD4 100347Z 21009KT 08/M03 A3003 RMK A01 T00761025  RH  049%=      5-min Rain = 0
KPD4 100348Z 21009KT 08/M02 A3003 RMK A01 T00771024  RH  049%=      5-min Rain = 0
KPD4 100349Z 21010KT 08/M02 A3003 RMK A01 T00791022  RH  049%=      5-min Rain = 0
KPD4 100350Z 21009KT 08/M02 A3003 RMK A01 T00831021  RH  048%=      5-min Rain = 0
KPD4 100351Z 21009KT 09/M02 A3003 RMK A01 T00851020  RH  047%=      5-min Rain = 0
KPD4 100352Z 21009KT 09/M02 A3003 RMK A01 T00871021  RH  047%=      5-min Rain = 0
KPD4 100353Z 21009KT 09/M02 A3003 RMK A01 T00871021  RH  046%=      5-min Rain = 0
KPD4 100354Z 21009KT 09/M02 A3003 RMK A01 T00881021  RH  046%=      5-min Rain = 0
KPD4 100355Z 21008KT 09/M02 A3003 RMK A01 T00881021  RH  046%=      5-min Rain = 0
KPD4 100356Z 21009KT 09/M02 A3003 RMK A01 T00881022  RH  046%=      5-min Rain = 0
KPD4 100357Z 21008KT 09/M02 A3003 RMK A01 T00871022  RH  046%=      5-min Rain = 0
KPD4 100358Z 21008KT 09/M02 A3003 RMK A01 T00871022  RH  046%=      5-min Rain = 0
KPD4 100359Z 21008KT 09/M02 A3003 RMK A01 T00871022  RH  046%=      5-min Rain = 0
KPD4 100400Z 21008KT 09/M02 A3003 RMK A01 T00861022  RH  046%=      5-min Rain = 0
KPD4 100401Z 21008KT 09/M02 A3003 RMK A01 T00851023  RH  047%=      5-min Rain = 0
KPD4 100402Z 21008KT 08/M02 A3003 RMK A01 T00841023  RH  047%=      5-min Rain = 0
KPD4 100403Z 20008KT 08/M02 A3003 RMK A01 T00831023  RH  047%=      5-min Rain = 0
KPD4 100404Z 20008KT 08/M02 A3003 RMK A01 T00821023  RH  047%=      5-min Rain = 0
KPD4 100405Z 20007KT 08/M02 A3003 RMK A01 T00831023  RH  047%=      5-min Rain = 0
KPD4 100406Z 20008KT 08/M02 A3003 RMK A01 T00821022  RH  048%=      5-min Rain = 0
KPD4 100407Z 20007KT 08/M02 A3003 RMK A01 T00821022  RH  048%=      5-min Rain = 0
KPD4 100408Z 20007KT 08/M02 A3003 RMK A01 T00821023  RH  048%=      5-min Rain = 0
KPD4 100409Z 20008KT 08/M02 A3003 RMK A01 T00811023  RH  048%=      5-min Rain = 0
KPD4 100410Z 20008KT 08/M02 A3003 RMK A01 T00821022  RH  048%=      5-min Rain = 0
KPD4 100411Z 21008KT 08/M02 A3003 RMK A01 T00821022  RH  048%=      5-min Rain = 0
KPD4 100412Z 21008KT 08/M02 A3003 RMK A01 T00821021  RH  048%=      5-min Rain = 0
KPD4 100413Z 21008KT 08/M02 A3003 RMK A01 T00821022  RH  048%=      5-min Rain = 0
KPD4 100414Z 21008KT 08/M02 A3003 RMK A01 T00811022  RH  048%=      5-min Rain = 0
KPD4 100415Z 21008KT 08/M02 A3003 RMK A01 T00791023  RH  048%=      5-min Rain = 0
KPD4 100416Z 20008KT 08/M02 A3003 RMK A01 T00781023  RH  049%=      5-min Rain = 0
KPD4 100417Z 21008KT 08/M02 A3003 RMK A01 T00781022  RH  049%=      5-min Rain = 0
KPD4 100418Z 21008KT 08/M02 A3003 RMK A01 T00761023  RH  049%=      5-min Rain = 0
KPD4 100419Z 21008KT 08/M02 A3003 RMK A01 T00751023  RH  050%=      5-min Rain = 0
KPD4 100420Z 21008KT 08/M02 A3003 RMK A01 T00751022  RH  050%=      5-min Rain = 0
KPD4 100421Z 21008KT 07/M02 A3003 RMK A01 T00741022  RH  050%=      5-min Rain = 0
KPD4 100422Z 21008KT 07/M02 A3003 RMK A01 T00741021  RH  051%=      5-min Rain = 0
KPD4 100423Z 21008KT 07/M02 A3003 RMK A01 T00741021  RH  051%=      5-min Rain = 0
KPD4 100424Z 21008KT 08/M02 A3003 RMK A01 T00751020  RH  051%=      5-min Rain = 0
KPD4 100425Z 21008KT 08/M02 A3003 RMK A01 T00761019  RH  051%=      5-min Rain = 0
KPD4 100426Z 21008KT 08/M02 A3003 RMK A01 T00771020  RH  051%=      5-min Rain = 0
KPD4 100427Z 21008KT 08/M02 A3003 RMK A01 T00771020  RH  051%=      5-min Rain = 0
KPD4 100428Z 21008KT 08/M02 A3003 RMK A01 T00771019  RH  051%=      5-min Rain = 0
KPD4 100429Z 21008KT 08/M02 A3003 RMK A01 T00781018  RH  051%=      5-min Rain = 0
KPD4 100430Z 21008KT 08/M02 A3003 RMK A01 T00781018  RH  051%=      5-min Rain = 0
KPD4 100431Z 21008KT 08/M02 A3003 RMK A01 T00781017  RH  051%=      5-min Rain = 0
KPD4 100432Z 21008KT 08/M02 A3003 RMK A01 T00781017  RH  051%=      5-min Rain = 0
KPD4 100433Z 21008KT 08/M02 A3003 RMK A01 T00781017  RH  051%=      5-min Rain = 0
KPD4 100434Z 21008KT 08/M02 A3003 RMK A01 T00781017  RH  051%=      5-min Rain = 0
KPD4 100435Z 21008KT 08/M02 A3003 RMK A01 T00771017  RH  051%=      5-min Rain = 0
KPD4 100436Z 21008KT 08/M02 A3003 RMK A01 T00761018  RH  051%=      5-min Rain = 0
KPD4 100437Z 21007KT 08/M02 A3003 RMK A01 T00751018  RH  052%=      5-min Rain = 0
KPD4 100438Z 21008KT 07/M02 A3003 RMK A01 T00741017  RH  052%=      5-min Rain = 0
KPD4 100439Z 21007KT 07/M02 A3003 RMK A01 T00741017  RH  052%=      5-min Rain = 0
KPD4 100440Z 21008KT 07/M02 A3003 RMK A01 T00731017  RH  052%=      5-min Rain = 0
KPD4 100441Z 21008KT 07/M02 A3003 RMK A01 T00731017  RH  053%=      5-min Rain = 0
KPD4 100442Z 22008KT 07/M02 A3003 RMK A01 T00721017  RH  053%=      5-min Rain = 0
KPD4 100443Z 22008KT 07/M02 A3003 RMK A01 T00721017  RH  053%=      5-min Rain = 0
KPD4 100444Z 22008KT 07/M02 A3003 RMK A01 T00721017  RH  053%=      5-min Rain = 0
KPD4 100445Z 22008KT 07/M02 A3003 RMK A01 T00721017  RH  053%=      5-min Rain = 0
KPD4 100446Z 21008KT 07/M02 A3003 RMK A01 T00721017  RH  053%=      5-min Rain = 0
KPD4 100447Z 21008KT 07/M02 A3003 RMK A01 T00721017  RH  053%=      5-min Rain = 0
KPD4 100448Z 22009KT 07/M02 A3003 RMK A01 T00721016  RH  053%=      5-min Rain = 0
KPD4 100449Z 22009KT 07/M02 A3003 RMK A01 T00721016  RH  053%=      5-min Rain = 0
KPD4 100450Z 22009KT 07/M02 A3003 RMK A01 T00741016  RH  053%=      5-min Rain = 0
KPD4 100451Z 22009KT 08/M02 A3003 RMK A01 T00751016  RH  053%=      5-min Rain = 0
KPD4 100452Z 22009KT 08/M02 A3003 RMK A01 T00761016  RH  052%=      5-min Rain = 0
KPD4 100453Z 22009KT 08/M02 A3003 RMK A01 T00761016  RH  052%=      5-min Rain = 0
KPD4 100454Z 21009KT 08/M02 A3003 RMK A01 T00761016  RH  052%=      5-min Rain = 0
KPD4 100455Z 21009KT 08/M02 A3003 RMK A01 T00771016  RH  052%=      5-min Rain = 0
KPD4 100456Z 21009KT 08/M02 A3003 RMK A01 T00771016  RH  052%=      5-min Rain = 0
KPD4 100457Z 21009KT 08/M02 A3003 RMK A01 T00771016  RH  052%=      5-min Rain = 0
KPD4 100458Z 21009KT 08/M02 A3003 RMK A01 T00771017  RH  051%=      5-min Rain = 0
KPD4 100459Z 21009KT 08/M02 A3003 RMK A01 T00771017  RH  051%=      5-min Rain = 0
KPD4 100500Z 21009KT 08/M02 A3003 RMK A01 T00761017  RH  051%=      5-min Rain = 0
KPD4 100501Z 21009KT 08/M02 A3003 RMK A01 T00761017  RH  052%=      5-min Rain = 0
KPD4 100502Z 21009KT 08/M02 A3003 RMK A01 T00761017  RH  052%=      5-min Rain = 0
KPD4 100503Z 21010KT 08/M02 A3003 RMK A01 T00761017  RH  052%=      5-min Rain = 0
KPD4 100504Z 21010KT 08/M02 A3003 RMK A01 T00751017  RH  052%=      5-min Rain = 0
KPD4 100505Z 21010KT 08/M02 A3002 RMK A01 T00751017  RH  052%=      5-min Rain = 0
KPD4 100506Z 21009KT 08/M02 A3002 RMK A01 T00751018  RH  052%=      5-min Rain = 0
KPD4 100507Z 21009KT 08/M02 A3002 RMK A01 T00761017  RH  052%=      5-min Rain = 0
KPD4 100508Z 21009KT 08/M02 A3002 RMK A01 T00751018  RH  052%=      5-min Rain = 0
KPD4 100509Z 21009KT 08/M02 A3002 RMK A01 T00751017  RH  052%=      5-min Rain = 0
KPD4 100510Z 21009KT 08/M02 A3002 RMK A01 T00751017  RH  052%=      5-min Rain = 0
KPD4 100511Z 21009KT 08/M02 A3002 RMK A01 T00751018  RH  052%=      5-min Rain = 0
KPD4 100512Z 21009KT 07/M02 A3002 RMK A01 T00741018  RH  052%=      5-min Rain = 0
KPD4 100513Z 21009KT 07/M02 A3002 RMK A01 T00731019  RH  052%=      5-min Rain = 0
KPD4 100514Z 21009KT 07/M02 A3002 RMK A01 T00721019  RH  052%=      5-min Rain = 0
KPD4 100515Z 21009KT 07/M02 A3002 RMK A01 T00711019  RH  053%=      5-min Rain = 0
KPD4 100516Z 21009KT 07/M02 A3002 RMK A01 T00711018  RH  053%=      5-min Rain = 0
KPD4 100517Z 21008KT 07/M02 A3002 RMK A01 T00711019  RH  053%=      5-min Rain = 0
KPD4 100518Z 21008KT 07/M02 A3002 RMK A01 T00701019  RH  053%=      5-min Rain = 0
KPD4 100519Z 21008KT 07/M02 A3002 RMK A01 T00681020  RH  053%=      5-min Rain = 0
KPD4 100520Z 21008KT 07/M02 A3002 RMK A01 T00671020  RH  054%=      5-min Rain = 0
KPD4 100521Z 21008KT 07/M02 A3002 RMK A01 T00651021  RH  054%=      5-min Rain = 0
KPD4 100522Z 21009KT 06/M02 A3002 RMK A01 T00631021  RH  055%=      5-min Rain = 0
KPD4 100523Z 21009KT 06/M02 A3002 RMK A01 T00631020  RH  055%=      5-min Rain = 0
KPD4 100524Z 21009KT 06/M02 A3002 RMK A01 T00631020  RH  056%=      5-min Rain = 0
KPD4 100525Z 21009KT 06/M02 A3002 RMK A01 T00641019  RH  056%=      5-min Rain = 0
KPD4 100526Z 21008KT 07/M02 A3002 RMK A01 T00651018  RH  055%=      5-min Rain = 0
KPD4 100527Z 21009KT 07/M02 A3002 RMK A01 T00661018  RH  055%=      5-min Rain = 0
KPD4 100528Z 21008KT 07/M02 A3002 RMK A01 T00671018  RH  055%=      5-min Rain = 0
KPD4 100529Z 21008KT 07/M02 A3002 RMK A01 T00681018  RH  054%=      5-min Rain = 0
KPD4 100530Z 21009KT 07/M02 A3002 RMK A01 T00681018  RH  054%=      5-min Rain = 0
KPD4 100531Z 21008KT 07/M02 A3002 RMK A01 T00681018  RH  054%=      5-min Rain = 0
KPD4 100532Z 21008KT 07/M02 A3002 RMK A01 T00671019  RH  054%=      5-min Rain = 0
KPD4 100533Z 21008KT 07/M02 A3002 RMK A01 T00671019  RH  055%=      5-min Rain = 0
KPD4 100534Z 21009KT 07/M02 A3002 RMK A01 T00661019  RH  055%=      5-min Rain = 0
KPD4 100535Z 21008KT 07/M02 A3002 RMK A01 T00651019  RH  055%=      5-min Rain = 0
KPD4 100536Z 21009KT 07/M02 A3002 RMK A01 T00651019  RH  055%=      5-min Rain = 0
KPD4 100537Z 21008KT 07/M02 A3002 RMK A01 T00651019  RH  055%=      5-min Rain = 0
KPD4 100538Z 21008KT 07/M02 A3002 RMK A01 T00651019  RH  055%=      5-min Rain = 0
KPD4 100539Z 21008KT 07/M02 A3002 RMK A01 T00651019  RH  055%=      5-min Rain = 0
KPD4 100540Z 21008KT 06/M02 A3002 RMK A01 T00641019  RH  055%=      5-min Rain = 0
KPD4 100541Z 21008KT 06/M02 A3002 RMK A01 T00631020  RH  055%=      5-min Rain = 0
KPD4 100542Z 21008KT 06/M02 A3002 RMK A01 T00631019  RH  055%=      5-min Rain = 0
KPD4 100543Z 21008KT 06/M02 A3002 RMK A01 T00631019  RH  055%=      5-min Rain = 0
KPD4 100544Z 21008KT 06/M02 A3002 RMK A01 T00641019  RH  056%=      5-min Rain = 0
KPD4 100545Z 21008KT 06/M02 A3002 RMK A01 T00641019  RH  055%=      5-min Rain = 0
KPD4 100546Z 21008KT 06/M02 A3002 RMK A01 T00641019  RH  055%=      5-min Rain = 0
KPD4 100547Z 21008KT 06/M02 A3002 RMK A01 T00641019  RH  055%=      5-min Rain = 0
KPD4 100548Z 22009KT 06/M02 A3002 RMK A01 T00641019  RH  055%=      5-min Rain = 0
KPD4 100549Z 22008KT 06/M02 A3002 RMK A01 T00641019  RH  055%=      5-min Rain = 0
KPD4 100550Z 22008KT 06/M02 A3002 RMK A01 T00641019  RH  055%=      5-min Rain = 0
KPD4 100551Z 22008KT 06/M02 A3002 RMK A01 T00641019  RH  055%=      5-min Rain = 0
KPD4 100552Z 22008KT 06/M02 A3002 RMK A01 T00641020  RH  055%=      5-min Rain = 0
KPD4 100553Z 22009KT 06/M02 A3002 RMK A01 T00631020  RH  055%=      5-min Rain = 0
KPD4 100554Z 22009KT 06/M02 A3002 RMK A01 T00631019  RH  055%=      5-min Rain = 0
KPD4 100555Z 22009KT 06/M02 A3002 RMK A01 T00631019  RH  055%=      5-min Rain = 0
KPD4 100556Z 22009KT 06/M02 A3001 RMK A01 T00631019  RH  055%=      5-min Rain = 0
KPD4 100557Z 22009KT 06/M02 A3001 RMK A01 T00631019  RH  055%=      5-min Rain = 0
KPD4 100558Z 22009KT 06/M02 A3001 RMK A01 T00631020  RH  055%=      5-min Rain = 0
KPD4 100559Z 22009KT 06/M02 A3001 RMK A01 T00631020  RH  055%=      5-min Rain = 0

Page generated in 0.0759 seconds.